Time,TemperatureF,DewpointF,PressureIn,WindDirection,WindDirectionDegrees,WindSpeedMPH,WindSpeedGustMPH,Humidity,HourlyPrecipIn,Conditions,Clouds,dailyrainin,SoftwareType,DateUTC
2013-04-22 00:00:00,38.8,30.9,30.63,West,263,0.0,0.0,73,0.00,,SKC,0.00,VWS V14.01,2013-04-22 04:00:00,
2013-04-22 00:01:00,37.5,30.0,30.64,West,264,0.0,0.0,74,0.00,,SKC,0.00,VWS V14.01,2013-04-22 04:01:00,
2013-04-22 00:05:00,38.6,31.0,30.63,West,264,0.0,0.0,74,0.00,,SKC,0.00,VWS V14.01,2013-04-22 04:05:00,
2013-04-22 00:06:00,37.5,30.0,30.64,West,263,0.0,0.0,74,0.00,,SKC,0.00,VWS V14.01,2013-04-22 04:06:00,
2013-04-22 00:07:00,37.5,30.3,30.64,West,274,0.0,0.0,75,0.00,,SKC,0.00,VWS V14.01,2013-04-22 04:07:00,
2013-04-22 00:10:00,38.6,31.4,30.63,West,265,0.0,0.0,75,0.00,,SKC,0.00,VWS V14.01,2013-04-22 04:10:00,
2013-04-22 00:11:00,37.5,31.0,30.64,West,263,0.0,0.0,77,0.00,,SKC,0.00,VWS V14.01,2013-04-22 04:11:00,
2013-04-22 00:12:00,37.5,31.3,30.64,West,263,0.0,0.0,78,0.00,,SKC,0.00,VWS V14.01,2013-04-22 04:12:00,
2013-04-22 00:15:00,38.5,31.3,30.63,West,264,0.0,0.0,75,0.00,,SKC,0.00,VWS V14.01,2013-04-22 04:15:00,
2013-04-22 00:16:00,37.5,31.6,30.64,West,263,0.0,0.0,79,0.00,,SKC,0.00,VWS V14.01,2013-04-22 04:16:00,
2013-04-22 00:17:00,37.5,31.6,30.64,West,261,0.0,0.0,79,0.00,,SKC,0.00,VWS V14.01,2013-04-22 04:17:00,
2013-04-22 00:18:00,37.5,31.6,30.64,West,261,0.0,0.0,79,0.00,,SKC,0.00,VWS V14.01,2013-04-22 04:18:00,
2013-04-22 00:20:00,38.3,31.1,30.63,West,263,0.0,0.0,75,0.00,,SKC,0.00,VWS V14.01,2013-04-22 04:20:00,
2013-04-22 00:21:00,37.3,31.7,30.64,West,264,0.0,0.0,80,0.00,,SKC,0.00,VWS V14.01,2013-04-22 04:21:00,
2013-04-22 00:22:00,37.3,31.7,30.64,West,268,0.0,0.0,80,0.00,,SKC,0.00,VWS V14.01,2013-04-22 04:22:00,
2013-04-22 00:23:00,37.3,31.7,30.64,West,268,0.0,0.0,80,0.00,,SKC,0.00,VWS V14.01,2013-04-22 04:23:00,
2013-04-22 00:25:00,38.2,31.3,30.63,West,264,0.0,0.0,76,0.00,,SKC,0.00,VWS V14.01,2013-04-22 04:25:00,
2013-04-22 00:26:00,37.3,31.7,30.64,West,278,0.0,0.0,80,0.00,,SKC,0.00,VWS V14.01,2013-04-22 04:26:00,
2013-04-22 00:27:00,37.2,31.6,30.64,West,267,0.0,0.0,80,0.00,,SKC,0.00,VWS V14.01,2013-04-22 04:27:00,
2013-04-22 00:28:00,37.2,31.6,30.64,West,267,0.0,0.0,80,0.00,,SKC,0.00,VWS V14.01,2013-04-22 04:28:00,
2013-04-22 00:30:00,38.2,31.3,30.64,West,264,0.0,0.0,76,0.00,,SKC,0.00,VWS V14.01,2013-04-22 04:30:00,
2013-04-22 00:31:00,37.0,31.4,30.64,West,265,0.0,0.0,80,0.00,,SKC,0.00,VWS V14.01,2013-04-22 04:31:00,
2013-04-22 00:33:00,37.0,31.4,30.64,West,267,0.0,0.0,80,0.00,,SKC,0.00,VWS V14.01,2013-04-22 04:33:00,
2013-04-22 00:35:00,38.0,31.1,30.64,West,263,0.0,0.0,76,0.00,,SKC,0.00,VWS V14.01,2013-04-22 04:35:00,
2013-04-22 00:37:00,36.9,31.6,30.64,West,264,0.0,0.0,81,0.00,,SKC,0.00,VWS V14.01,2013-04-22 04:37:00,
2013-04-22 00:38:00,36.9,31.6,30.64,West,265,0.0,0.0,81,0.00,,SKC,0.00,VWS V14.01,2013-04-22 04:38:00,
2013-04-22 00:39:00,36.9,31.6,30.64,West,267,0.0,0.0,81,0.00,,SKC,0.00,VWS V14.01,2013-04-22 04:39:00,
2013-04-22 00:40:00,37.9,31.0,30.64,West,263,0.0,0.0,76,0.00,,SKC,0.00,VWS V14.01,2013-04-22 04:40:00,
2013-04-22 00:42:00,36.8,31.8,30.64,West,270,0.0,0.0,82,0.00,,SKC,0.00,VWS V14.01,2013-04-22 04:42:00,
2013-04-22 00:43:00,36.8,31.8,30.64,West,268,0.0,0.0,82,0.00,,SKC,0.00,VWS V14.01,2013-04-22 04:43:00,
2013-04-22 00:44:00,36.6,31.6,30.63,West,268,0.0,0.0,82,0.00,,SKC,0.00,VWS V14.01,2013-04-22 04:44:00,
2013-04-22 00:45:00,37.8,30.9,30.64,West,263,0.0,0.0,76,0.00,,SKC,0.00,VWS V14.01,2013-04-22 04:45:00,
2013-04-22 00:47:00,36.5,31.5,30.63,West,265,0.0,0.0,82,0.00,,SKC,0.00,VWS V14.01,2013-04-22 04:47:00,
2013-04-22 00:48:00,36.5,31.8,30.63,West,264,0.0,0.0,83,0.00,,SKC,0.00,VWS V14.01,2013-04-22 04:48:00,
2013-04-22 00:49:00,36.5,31.8,30.63,West,265,0.0,0.0,83,0.00,,SKC,0.00,VWS V14.01,2013-04-22 04:49:00,
2013-04-22 00:50:00,37.8,30.6,30.64,West,263,0.0,0.0,75,0.00,,SKC,0.00,VWS V14.01,2013-04-22 04:50:00,
2013-04-22 00:53:00,36.5,31.5,30.63,West,263,0.0,0.0,82,0.00,,SKC,0.00,VWS V14.01,2013-04-22 04:53:00,
2013-04-22 00:54:00,36.5,31.5,30.63,West,264,0.0,0.0,82,0.00,,SKC,0.00,VWS V14.01,2013-04-22 04:54:00,
2013-04-22 00:55:00,36.3,31.3,30.63,West,264,0.0,0.0,82,0.00,,SKC,0.00,VWS V14.01,2013-04-22 04:55:00,
2013-04-22 00:58:00,36.3,31.3,30.63,West,264,0.0,0.0,82,0.00,,SKC,0.00,VWS V14.01,2013-04-22 04:58:00,
2013-04-22 00:59:00,36.3,31.3,30.63,West,263,0.0,0.0,82,0.00,,SKC,0.00,VWS V14.01,2013-04-22 04:59:00,
2013-04-22 01:00:00,36.3,31.3,30.63,West,264,0.0,0.0,82,0.00,,SKC,0.00,VWS V14.01,2013-04-22 05:00:00,
2013-04-22 01:03:00,36.3,31.6,30.63,West,263,0.0,0.0,83,0.00,,SKC,0.00,VWS V14.01,2013-04-22 05:03:00,
2013-04-22 01:04:00,36.5,32.1,30.63,West,265,0.0,0.0,84,0.00,,SKC,0.00,VWS V14.01,2013-04-22 05:04:00,
2013-04-22 01:05:00,36.5,32.1,30.63,West,265,0.0,0.0,84,0.00,,SKC,0.00,VWS V14.01,2013-04-22 05:05:00,
2013-04-22 01:06:00,36.5,32.4,30.63,West,268,0.0,0.0,85,0.00,,SKC,0.00,VWS V14.01,2013-04-22 05:06:00,
2013-04-22 01:08:00,36.5,32.4,30.63,West,270,0.0,0.0,85,0.00,,SKC,0.00,VWS V14.01,2013-04-22 05:08:00,
2013-04-22 01:10:00,36.5,32.4,30.63,West,268,0.0,0.0,85,0.00,,SKC,0.00,VWS V14.01,2013-04-22 05:10:00,
2013-04-22 01:11:00,36.5,32.4,30.63,West,267,0.0,0.0,85,0.00,,SKC,0.00,VWS V14.01,2013-04-22 05:11:00,
2013-04-22 01:14:00,36.5,32.4,30.63,West,267,0.0,0.0,85,0.00,,SKC,0.00,VWS V14.01,2013-04-22 05:14:00,
2013-04-22 01:15:00,36.5,32.4,30.63,West,267,0.0,0.0,85,0.00,,SKC,0.00,VWS V14.01,2013-04-22 05:15:00,
2013-04-22 01:16:00,36.5,32.4,30.63,West,265,0.0,0.0,85,0.00,,SKC,0.00,VWS V14.01,2013-04-22 05:16:00,
2013-04-22 01:17:00,36.5,32.4,30.63,West,267,0.0,0.0,85,0.00,,SKC,0.00,VWS V14.01,2013-04-22 05:17:00,
2013-04-22 01:19:00,36.3,32.2,30.63,West,267,0.0,0.0,85,0.00,,SKC,0.00,VWS V14.01,2013-04-22 05:19:00,
2013-04-22 01:20:00,36.3,32.2,30.63,West,267,0.0,0.0,85,0.00,,SKC,0.00,VWS V14.01,2013-04-22 05:20:00,
2013-04-22 01:21:00,36.3,32.2,30.63,West,268,0.0,0.0,85,0.00,,SKC,0.00,VWS V14.01,2013-04-22 05:21:00,
2013-04-22 01:22:00,36.3,32.2,30.63,West,267,0.0,0.0,85,0.00,,SKC,0.00,VWS V14.01,2013-04-22 05:22:00,
2013-04-22 01:24:00,36.3,32.2,30.63,West,267,0.0,0.0,85,0.00,,SKC,0.00,VWS V14.01,2013-04-22 05:24:00,
2013-04-22 01:25:00,36.3,31.6,30.63,West,265,0.0,0.0,83,0.00,,SKC,0.00,VWS V14.01,2013-04-22 05:25:00,
2013-04-22 01:26:00,36.3,31.6,30.63,West,267,0.0,0.0,83,0.00,,SKC,0.00,VWS V14.01,2013-04-22 05:26:00,
2013-04-22 01:27:00,36.2,31.5,30.63,West,268,0.0,0.0,83,0.00,,SKC,0.00,VWS V14.01,2013-04-22 05:27:00,
2013-04-22 01:29:00,36.2,31.5,30.63,West,268,0.0,0.0,83,0.00,,SKC,0.00,VWS V14.01,2013-04-22 05:29:00,
2013-04-22 01:30:00,37.2,31.6,30.64,West,267,0.0,0.0,80,0.00,,SKC,0.00,VWS V14.01,2013-04-22 05:30:00,
2013-04-22 01:31:00,36.2,31.5,30.63,West,268,0.0,0.0,83,0.00,,SKC,0.00,VWS V14.01,2013-04-22 05:31:00,
2013-04-22 01:32:00,36.2,31.5,30.63,West,280,0.0,0.0,83,0.00,,SKC,0.00,VWS V14.01,2013-04-22 05:32:00,
2013-04-22 01:35:00,36.2,31.5,30.63,West,267,0.0,0.0,83,0.00,,SKC,0.00,VWS V14.01,2013-04-22 05:35:00,
2013-04-22 01:36:00,36.2,31.5,30.63,West,275,0.0,0.0,83,0.00,,SKC,0.00,VWS V14.01,2013-04-22 05:36:00,
2013-04-22 01:37:00,36.2,31.5,30.63,West,265,0.0,0.0,83,0.00,,SKC,0.00,VWS V14.01,2013-04-22 05:37:00,
2013-04-22 01:38:00,36.2,31.5,30.63,West,267,0.0,0.0,83,0.00,,SKC,0.00,VWS V14.01,2013-04-22 05:38:00,
2013-04-22 01:40:00,36.2,31.5,30.63,West,264,0.0,0.0,83,0.00,,SKC,0.00,VWS V14.01,2013-04-22 05:40:00,
2013-04-22 01:41:00,36.2,31.5,30.63,West,265,0.0,0.0,83,0.00,,SKC,0.00,VWS V14.01,2013-04-22 05:41:00,
2013-04-22 01:42:00,36.2,31.5,30.63,West,264,0.0,0.0,83,0.00,,SKC,0.00,VWS V14.01,2013-04-22 05:42:00,
2013-04-22 01:43:00,36.0,31.4,30.63,West,263,0.0,0.0,83,0.00,,SKC,0.00,VWS V14.01,2013-04-22 05:43:00,
2013-04-22 01:45:00,36.6,31.6,30.63,West,267,0.0,0.0,82,0.00,,SKC,0.00,VWS V14.01,2013-04-22 05:45:00,
2013-04-22 01:46:00,36.0,31.6,30.63,West,275,0.0,0.0,84,0.00,,SKC,0.00,VWS V14.01,2013-04-22 05:46:00,
2013-04-22 01:47:00,36.0,31.6,30.63,West,264,0.0,0.0,84,0.00,,SKC,0.00,VWS V14.01,2013-04-22 05:47:00,
2013-04-22 01:48:00,36.0,31.6,30.63,West,270,0.0,0.0,84,0.00,,SKC,0.00,VWS V14.01,2013-04-22 05:48:00,
2013-04-22 01:50:00,36.5,31.8,30.63,West,264,0.0,0.0,83,0.00,,SKC,0.00,VWS V14.01,2013-04-22 05:50:00,
2013-04-22 01:51:00,35.9,31.5,30.63,West,265,0.0,0.0,84,0.00,,SKC,0.00,VWS V14.01,2013-04-22 05:51:00,
2013-04-22 01:52:00,35.9,31.5,30.63,West,268,0.0,0.0,84,0.00,,SKC,0.00,VWS V14.01,2013-04-22 05:52:00,
2013-04-22 01:53:00,35.9,31.5,30.63,West,263,0.0,0.0,84,0.00,,SKC,0.00,VWS V14.01,2013-04-22 05:53:00,
2013-04-22 01:55:00,36.3,31.3,30.63,West,264,0.0,0.0,82,0.00,,SKC,0.00,VWS V14.01,2013-04-22 05:55:00,
2013-04-22 01:57:00,35.8,31.7,30.63,West,264,0.0,0.0,85,0.00,,SKC,0.00,VWS V14.01,2013-04-22 05:57:00,
2013-04-22 01:58:00,35.8,31.7,30.63,West,265,0.0,0.0,85,0.00,,SKC,0.00,VWS V14.01,2013-04-22 05:58:00,
2013-04-22 01:59:00,35.8,31.7,30.63,West,265,0.0,0.0,85,0.00,,SKC,0.00,VWS V14.01,2013-04-22 05:59:00,
2013-04-22 02:00:00,36.3,31.3,30.63,West,264,0.0,0.0,82,0.00,,SKC,0.00,VWS V14.01,2013-04-22 06:00:00,
2013-04-22 02:02:00,35.8,31.7,30.62,West,267,0.0,0.0,85,0.00,,SKC,0.00,VWS V14.01,2013-04-22 06:02:00,
2013-04-22 02:03:00,35.8,31.7,30.62,West,265,0.0,0.0,85,0.00,,SKC,0.00,VWS V14.01,2013-04-22 06:03:00,
2013-04-22 02:04:00,35.8,31.7,30.62,West,267,0.0,0.0,85,0.00,,SKC,0.00,VWS V14.01,2013-04-22 06:04:00,
2013-04-22 02:05:00,36.5,32.1,30.63,West,265,0.0,0.0,84,0.00,,SKC,0.00,VWS V14.01,2013-04-22 06:05:00,
2013-04-22 02:07:00,35.6,31.5,30.62,West,267,0.0,0.0,85,0.00,,SKC,0.00,VWS V14.01,2013-04-22 06:07:00,
2013-04-22 02:08:00,35.6,31.5,30.62,West,267,0.0,0.0,85,0.00,,SKC,0.00,VWS V14.01,2013-04-22 06:08:00,
2013-04-22 02:10:00,35.6,31.5,30.62,West,267,0.0,0.0,85,0.00,,SKC,0.00,VWS V14.01,2013-04-22 06:10:00,
2013-04-22 02:11:00,35.6,31.8,30.62,West,267,0.0,0.0,86,0.00,,SKC,0.00,VWS V14.01,2013-04-22 06:11:00,
2013-04-22 02:12:00,35.5,31.7,30.62,West,263,0.0,0.0,86,0.00,,SKC,0.00,VWS V14.01,2013-04-22 06:12:00,
2013-04-22 02:13:00,35.5,31.7,30.62,West,264,0.0,0.0,86,0.00,,SKC,0.00,VWS V14.01,2013-04-22 06:13:00,
2013-04-22 02:15:00,35.5,31.7,30.63,West,264,0.0,0.0,86,0.00,,SKC,0.00,VWS V14.01,2013-04-22 06:15:00,
2013-04-22 02:16:00,35.5,31.7,30.63,West,263,0.0,0.0,86,0.00,,SKC,0.00,VWS V14.01,2013-04-22 06:16:00,
2013-04-22 02:18:00,35.5,31.7,30.63,West,263,0.0,0.0,86,0.00,,SKC,0.00,VWS V14.01,2013-04-22 06:18:00,
2013-04-22 02:19:00,35.5,31.7,30.63,West,261,0.0,0.0,86,0.00,,SKC,0.00,VWS V14.01,2013-04-22 06:19:00,
2013-04-22 02:20:00,35.5,31.7,30.63,West,264,0.0,0.0,86,0.00,,SKC,0.00,VWS V14.01,2013-04-22 06:20:00,
2013-04-22 02:21:00,35.5,31.7,30.63,West,264,0.0,0.0,86,0.00,,SKC,0.00,VWS V14.01,2013-04-22 06:21:00,
2013-04-22 02:23:00,35.6,31.8,30.63,West,265,0.0,0.0,86,0.00,,SKC,0.00,VWS V14.01,2013-04-22 06:23:00,
2013-04-22 02:24:00,35.6,31.8,30.63,West,264,0.0,0.0,86,0.00,,SKC,0.00,VWS V14.01,2013-04-22 06:24:00,
2013-04-22 02:25:00,36.3,31.6,30.63,West,267,0.0,0.0,83,0.00,,SKC,0.00,VWS V14.01,2013-04-22 06:25:00,
2013-04-22 02:26:00,35.6,31.8,30.63,West,264,0.0,0.0,86,0.00,,SKC,0.00,VWS V14.01,2013-04-22 06:26:00,
2013-04-22 02:28:00,35.6,32.1,30.63,West,264,0.0,0.0,87,0.00,,SKC,0.00,VWS V14.01,2013-04-22 06:28:00,
2013-04-22 02:29:00,35.6,32.1,30.63,West,264,0.0,0.0,87,0.00,,SKC,0.00,VWS V14.01,2013-04-22 06:29:00,
2013-04-22 02:30:00,35.6,32.1,30.63,West,267,0.0,0.0,87,0.00,,SKC,0.00,VWS V14.01,2013-04-22 06:30:00,
2013-04-22 02:31:00,35.6,32.1,30.63,West,270,0.0,0.0,87,0.00,,SKC,0.00,VWS V14.01,2013-04-22 06:31:00,
2013-04-22 02:34:00,35.6,32.1,30.63,West,265,0.0,0.0,87,0.00,,SKC,0.00,VWS V14.01,2013-04-22 06:34:00,
2013-04-22 02:35:00,35.6,32.1,30.63,West,268,0.0,0.0,87,0.00,,SKC,0.00,VWS V14.01,2013-04-22 06:35:00,
2013-04-22 02:37:00,35.6,32.1,30.63,West,265,0.0,0.0,87,0.00,,SKC,0.00,VWS V14.01,2013-04-22 06:37:00,
2013-04-22 02:40:00,35.6,32.1,30.63,West,268,0.0,0.0,87,0.00,,SKC,0.00,VWS V14.01,2013-04-22 06:40:00,
2013-04-22 02:42:00,35.6,32.1,30.63,West,268,0.0,0.0,87,0.00,,SKC,0.00,VWS V14.01,2013-04-22 06:42:00,
2013-04-22 02:45:00,35.6,32.1,30.63,West,267,0.0,0.0,87,0.00,,SKC,0.00,VWS V14.01,2013-04-22 06:45:00,
2013-04-22 02:46:00,35.6,32.1,30.63,West,267,0.0,0.0,87,0.00,,SKC,0.00,VWS V14.01,2013-04-22 06:46:00,
2013-04-22 02:47:00,35.6,32.1,30.63,West,267,0.0,0.0,87,0.00,,SKC,0.00,VWS V14.01,2013-04-22 06:47:00,
2013-04-22 02:48:00,35.6,32.1,30.63,West,267,0.0,0.0,87,0.00,,SKC,0.00,VWS V14.01,2013-04-22 06:48:00,
2013-04-22 02:50:00,35.6,32.1,30.63,West,265,0.0,0.0,87,0.00,,SKC,0.00,VWS V14.01,2013-04-22 06:50:00,
2013-04-22 02:51:00,35.6,32.1,30.63,West,267,0.0,0.0,87,0.00,,SKC,0.00,VWS V14.01,2013-04-22 06:51:00,
2013-04-22 02:53:00,35.6,32.1,30.63,West,265,0.0,0.0,87,0.00,,SKC,0.00,VWS V14.01,2013-04-22 06:53:00,
2013-04-22 02:55:00,35.5,32.0,30.63,West,265,0.0,0.0,87,0.00,,SKC,0.00,VWS V14.01,2013-04-22 06:55:00,
2013-04-22 02:56:00,35.5,32.0,30.63,West,267,0.0,0.0,87,0.00,,SKC,0.00,VWS V14.01,2013-04-22 06:56:00,
2013-04-22 02:57:00,35.5,32.0,30.63,West,280,0.0,0.0,87,0.00,,SKC,0.00,VWS V14.01,2013-04-22 06:57:00,
2013-04-22 02:58:00,35.5,32.0,30.63,West,267,0.0,0.0,87,0.00,,SKC,0.00,VWS V14.01,2013-04-22 06:58:00,
2013-04-22 02:59:00,35.5,32.0,30.63,West,268,0.0,0.0,87,0.00,,SKC,0.00,VWS V14.01,2013-04-22 06:59:00,
2013-04-22 03:00:00,35.8,31.7,30.62,West,265,0.0,0.0,85,0.00,,SKC,0.00,VWS V14.01,2013-04-22 07:00:00,
2013-04-22 03:01:00,35.5,32.0,30.63,West,267,0.0,0.0,87,0.00,,SKC,0.00,VWS V14.01,2013-04-22 07:01:00,
2013-04-22 03:02:00,35.5,32.0,30.63,West,265,0.0,0.0,87,0.00,,SKC,0.00,VWS V14.01,2013-04-22 07:02:00,
2013-04-22 03:04:00,35.3,31.8,30.63,West,268,0.0,0.0,87,0.00,,SKC,0.00,VWS V14.01,2013-04-22 07:04:00,
2013-04-22 03:05:00,35.6,31.5,30.62,West,265,0.0,0.0,85,0.00,,SKC,0.00,VWS V14.01,2013-04-22 07:05:00,
2013-04-22 03:06:00,35.5,32.0,30.63,West,265,0.0,0.0,87,0.00,,SKC,0.00,VWS V14.01,2013-04-22 07:06:00,
2013-04-22 03:07:00,35.5,31.7,30.63,West,265,0.0,0.0,86,0.00,,SKC,0.00,VWS V14.01,2013-04-22 07:07:00,
2013-04-22 03:08:00,35.5,31.7,30.63,West,264,0.0,0.0,86,0.00,,SKC,0.00,VWS V14.01,2013-04-22 07:08:00,
2013-04-22 03:09:00,35.3,31.5,30.63,West,267,0.0,0.0,86,0.00,,SKC,0.00,VWS V14.01,2013-04-22 07:09:00,
2013-04-22 03:10:00,35.6,31.5,30.62,West,267,0.0,0.0,85,0.00,,SKC,0.00,VWS V14.01,2013-04-22 07:10:00,
2013-04-22 03:11:00,35.3,31.5,30.63,West,267,0.0,0.0,86,0.00,,SKC,0.00,VWS V14.01,2013-04-22 07:11:00,
2013-04-22 03:12:00,35.3,31.5,30.63,West,267,0.0,0.0,86,0.00,,SKC,0.00,VWS V14.01,2013-04-22 07:12:00,
2013-04-22 03:13:00,35.3,31.5,30.63,West,264,0.0,0.0,86,0.00,,SKC,0.00,VWS V14.01,2013-04-22 07:13:00,
2013-04-22 03:14:00,35.3,31.2,30.64,West,267,0.0,0.0,85,0.00,,SKC,0.00,VWS V14.01,2013-04-22 07:14:00,
2013-04-22 03:15:00,35.2,31.1,30.64,West,265,0.0,0.0,85,0.00,,SKC,0.00,VWS V14.01,2013-04-22 07:15:00,
2013-04-22 03:16:00,35.2,31.1,30.64,West,267,0.0,0.0,85,0.00,,SKC,0.00,VWS V14.01,2013-04-22 07:16:00,
2013-04-22 03:18:00,35.2,31.1,30.64,West,265,0.0,0.0,85,0.00,,SKC,0.00,VWS V14.01,2013-04-22 07:18:00,
2013-04-22 03:20:00,35.0,31.0,30.64,West,267,0.0,0.0,85,0.00,,SKC,0.00,VWS V14.01,2013-04-22 07:20:00,
2013-04-22 03:21:00,35.0,31.0,30.64,West,268,0.0,0.0,85,0.00,,SKC,0.00,VWS V14.01,2013-04-22 07:21:00,
2013-04-22 03:23:00,35.0,31.0,30.64,West,263,0.0,0.0,85,0.00,,SKC,0.00,VWS V14.01,2013-04-22 07:23:00,
2013-04-22 03:25:00,35.0,31.0,30.64,West,263,0.0,0.0,85,0.00,,SKC,0.00,VWS V14.01,2013-04-22 07:25:00,
2013-04-22 03:26:00,34.9,30.9,30.64,West,265,0.0,0.0,85,0.00,,SKC,0.00,VWS V14.01,2013-04-22 07:26:00,
2013-04-22 03:28:00,34.9,30.9,30.64,West,263,0.0,0.0,85,0.00,,SKC,0.00,VWS V14.01,2013-04-22 07:28:00,
2013-04-22 03:30:00,34.7,30.7,30.64,West,265,0.0,0.0,85,0.00,,SKC,0.00,VWS V14.01,2013-04-22 07:30:00,
2013-04-22 03:31:00,34.7,30.7,30.64,West,278,0.0,0.0,85,0.00,,SKC,0.00,VWS V14.01,2013-04-22 07:31:00,
2013-04-22 03:32:00,34.7,30.7,30.64,West,264,0.0,0.0,85,0.00,,SKC,0.00,VWS V14.01,2013-04-22 07:32:00,
2013-04-22 03:33:00,34.7,30.7,30.64,West,264,0.0,0.0,85,0.00,,SKC,0.00,VWS V14.01,2013-04-22 07:33:00,
2013-04-22 03:35:00,34.7,30.7,30.64,West,267,0.0,0.0,85,0.00,,SKC,0.00,VWS V14.01,2013-04-22 07:35:00,
2013-04-22 03:36:00,34.7,30.7,30.64,West,264,0.0,0.0,85,0.00,,SKC,0.00,VWS V14.01,2013-04-22 07:36:00,
2013-04-22 03:37:00,34.7,30.7,30.64,West,267,0.0,0.0,85,0.00,,SKC,0.00,VWS V14.01,2013-04-22 07:37:00,
2013-04-22 03:39:00,34.6,30.6,30.64,West,265,0.0,0.0,85,0.00,,SKC,0.00,VWS V14.01,2013-04-22 07:39:00,
2013-04-22 03:40:00,35.6,32.1,30.63,West,268,0.0,0.0,87,0.00,,SKC,0.00,VWS V14.01,2013-04-22 07:40:00,
2013-04-22 03:41:00,34.6,30.6,30.64,West,267,0.0,0.0,85,0.00,,SKC,0.00,VWS V14.01,2013-04-22 07:41:00,
2013-04-22 03:42:00,34.6,30.6,30.64,West,267,0.0,0.0,85,0.00,,SKC,0.00,VWS V14.01,2013-04-22 07:42:00,
2013-04-22 03:44:00,34.6,30.6,30.64,West,265,0.0,0.0,85,0.00,,SKC,0.00,VWS V14.01,2013-04-22 07:44:00,
2013-04-22 03:45:00,35.6,32.1,30.63,West,267,0.0,0.0,87,0.00,,SKC,0.00,VWS V14.01,2013-04-22 07:45:00,
2013-04-22 03:46:00,34.4,30.4,30.64,West,267,0.0,0.0,85,0.00,,SKC,0.00,VWS V14.01,2013-04-22 07:46:00,
2013-04-22 03:47:00,34.4,30.4,30.64,West,267,0.0,0.0,85,0.00,,SKC,0.00,VWS V14.01,2013-04-22 07:47:00,
2013-04-22 03:48:00,34.4,30.6,30.64,West,267,0.0,0.0,86,0.00,,SKC,0.00,VWS V14.01,2013-04-22 07:48:00,
2013-04-22 03:50:00,34.4,30.6,30.64,West,267,0.0,0.0,86,0.00,,SKC,0.00,VWS V14.01,2013-04-22 07:50:00,
2013-04-22 03:51:00,34.4,30.6,30.64,West,264,0.0,0.0,86,0.00,,SKC,0.00,VWS V14.01,2013-04-22 07:51:00,
2013-04-22 03:52:00,34.4,30.6,30.64,West,264,0.0,0.0,86,0.00,,SKC,0.00,VWS V14.01,2013-04-22 07:52:00,
2013-04-22 03:53:00,34.4,30.6,30.64,West,265,0.0,0.0,86,0.00,,SKC,0.00,VWS V14.01,2013-04-22 07:53:00,
2013-04-22 03:54:00,34.4,30.6,30.64,West,268,0.0,0.0,86,0.00,,SKC,0.00,VWS V14.01,2013-04-22 07:54:00,
2013-04-22 03:55:00,34.3,30.6,30.64,West,267,0.0,0.0,86,0.00,,SKC,0.00,VWS V14.01,2013-04-22 07:55:00,
2013-04-22 03:57:00,34.3,30.6,30.64,West,267,0.0,0.0,86,0.00,,SKC,0.00,VWS V14.01,2013-04-22 07:57:00,
2013-04-22 03:58:00,34.3,30.8,30.64,West,265,0.0,0.0,87,0.00,,SKC,0.00,VWS V14.01,2013-04-22 07:58:00,
2013-04-22 03:59:00,34.3,30.8,30.64,West,264,0.0,0.0,87,0.00,,SKC,0.00,VWS V14.01,2013-04-22 07:59:00,
2013-04-22 04:00:00,35.5,32.0,30.63,West,265,0.0,0.0,87,0.00,,SKC,0.00,VWS V14.01,2013-04-22 08:00:00,
2013-04-22 04:01:00,34.1,30.6,30.64,West,267,0.0,0.0,87,0.00,,SKC,0.00,VWS V14.01,2013-04-22 08:01:00,
2013-04-22 04:02:00,34.1,30.6,30.64,West,265,0.0,0.0,87,0.00,,SKC,0.00,VWS V14.01,2013-04-22 08:02:00,
2013-04-22 04:03:00,34.1,30.6,30.64,West,268,0.0,0.0,87,0.00,,SKC,0.00,VWS V14.01,2013-04-22 08:03:00,
2013-04-22 04:04:00,34.1,30.6,30.64,West,264,0.0,0.0,87,0.00,,SKC,0.00,VWS V14.01,2013-04-22 08:04:00,
2013-04-22 04:05:00,35.5,32.0,30.63,West,267,0.0,0.0,87,0.00,,SKC,0.00,VWS V14.01,2013-04-22 08:05:00,
2013-04-22 04:06:00,34.0,30.5,30.64,West,267,0.0,0.0,87,0.00,,SKC,0.00,VWS V14.01,2013-04-22 08:06:00,
2013-04-22 04:08:00,34.0,30.5,30.64,West,268,0.0,0.0,87,0.00,,SKC,0.00,VWS V14.01,2013-04-22 08:08:00,
2013-04-22 04:10:00,33.8,30.6,30.64,West,267,0.0,0.0,88,0.00,,SKC,0.00,VWS V14.01,2013-04-22 08:10:00,
2013-04-22 04:11:00,33.8,30.6,30.64,West,265,0.0,0.0,88,0.00,,SKC,0.00,VWS V14.01,2013-04-22 08:11:00,
2013-04-22 04:13:00,33.8,30.6,30.64,West,265,0.0,0.0,88,0.00,,SKC,0.00,VWS V14.01,2013-04-22 08:13:00,
2013-04-22 04:14:00,33.8,30.6,30.64,West,265,0.0,0.0,88,0.00,,SKC,0.00,VWS V14.01,2013-04-22 08:14:00,
2013-04-22 04:15:00,33.8,30.6,30.65,West,265,0.0,0.0,88,0.00,,SKC,0.00,VWS V14.01,2013-04-22 08:15:00,
2013-04-22 04:16:00,33.8,30.6,30.65,West,267,0.0,0.0,88,0.00,,SKC,0.00,VWS V14.01,2013-04-22 08:16:00,
2013-04-22 04:18:00,33.7,30.5,30.65,West,267,0.0,0.0,88,0.00,,SKC,0.00,VWS V14.01,2013-04-22 08:18:00,
2013-04-22 04:19:00,33.7,30.5,30.65,West,270,0.0,0.0,88,0.00,,SKC,0.00,VWS V14.01,2013-04-22 08:19:00,
2013-04-22 04:20:00,33.7,30.8,30.65,West,268,0.0,0.0,89,0.00,,SKC,0.00,VWS V14.01,2013-04-22 08:20:00,
2013-04-22 04:22:00,33.7,30.8,30.65,West,264,0.0,0.0,89,0.00,,SKC,0.00,VWS V14.01,2013-04-22 08:22:00,
2013-04-22 04:23:00,33.7,30.8,30.65,West,267,0.0,0.0,89,0.00,,SKC,0.00,VWS V14.01,2013-04-22 08:23:00,
2013-04-22 04:24:00,33.5,30.6,30.65,West,281,0.0,0.0,89,0.00,,SKC,0.00,VWS V14.01,2013-04-22 08:24:00,
2013-04-22 04:25:00,35.0,31.0,30.64,West,265,0.0,0.0,85,0.00,,SKC,0.00,VWS V14.01,2013-04-22 08:25:00,
2013-04-22 04:26:00,33.5,30.6,30.65,West,277,0.0,0.0,89,0.00,,SKC,0.00,VWS V14.01,2013-04-22 08:26:00,
2013-04-22 04:27:00,33.5,30.6,30.65,West,267,0.0,0.0,89,0.00,,SKC,0.00,VWS V14.01,2013-04-22 08:27:00,
2013-04-22 04:28:00,33.5,30.6,30.65,West,267,0.0,0.0,89,0.00,,SKC,0.00,VWS V14.01,2013-04-22 08:28:00,
2013-04-22 04:29:00,33.5,30.6,30.65,West,264,0.0,0.0,89,0.00,,SKC,0.00,VWS V14.01,2013-04-22 08:29:00,
2013-04-22 04:30:00,34.7,30.7,30.64,West,265,0.0,0.0,85,0.00,,SKC,0.00,VWS V14.01,2013-04-22 08:30:00,
2013-04-22 04:32:00,33.4,30.5,30.65,West,265,0.0,0.0,89,0.00,,SKC,0.00,VWS V14.01,2013-04-22 08:32:00,
2013-04-22 04:34:00,33.4,30.5,30.65,West,267,0.0,0.0,89,0.00,,SKC,0.00,VWS V14.01,2013-04-22 08:34:00,
2013-04-22 04:35:00,33.4,30.5,30.65,West,267,0.0,0.0,89,0.00,,SKC,0.00,VWS V14.01,2013-04-22 08:35:00,
2013-04-22 04:37:00,33.4,30.5,30.65,West,265,0.0,0.0,89,0.00,,SKC,0.00,VWS V14.01,2013-04-22 08:37:00,
2013-04-22 04:39:00,33.2,30.3,30.65,West,264,0.0,0.0,89,0.00,,SKC,0.00,VWS V14.01,2013-04-22 08:39:00,
2013-04-22 04:40:00,34.6,30.6,30.64,West,265,0.0,0.0,85,0.00,,SKC,0.00,VWS V14.01,2013-04-22 08:40:00,
2013-04-22 04:42:00,33.2,30.3,30.65,West,265,0.0,0.0,89,0.00,,SKC,0.00,VWS V14.01,2013-04-22 08:42:00,
2013-04-22 04:44:00,33.1,30.2,30.65,West,267,0.0,0.0,89,0.00,,SKC,0.00,VWS V14.01,2013-04-22 08:44:00,
2013-04-22 04:45:00,33.1,30.2,30.65,West,267,0.0,0.0,89,0.00,,SKC,0.00,VWS V14.01,2013-04-22 08:45:00,
2013-04-22 04:48:00,33.1,30.2,30.65,West,267,0.0,0.0,89,0.00,,SKC,0.00,VWS V14.01,2013-04-22 08:48:00,
2013-04-22 04:50:00,32.9,30.0,30.65,West,270,0.0,0.0,89,0.00,,SKC,0.00,VWS V14.01,2013-04-22 08:50:00,
2013-04-22 04:53:00,32.9,30.0,30.65,West,267,0.0,0.0,89,0.00,,SKC,0.00,VWS V14.01,2013-04-22 08:53:00,
2013-04-22 04:55:00,32.9,30.0,30.65,West,265,0.0,0.0,89,0.00,,SKC,0.00,VWS V14.01,2013-04-22 08:55:00,
2013-04-22 04:56:00,32.8,29.9,30.65,West,267,0.0,0.0,89,0.00,,SKC,0.00,VWS V14.01,2013-04-22 08:56:00,
2013-04-22 04:58:00,32.8,29.9,30.65,West,278,0.0,0.0,89,0.00,,SKC,0.00,VWS V14.01,2013-04-22 08:58:00,
2013-04-22 05:00:00,32.8,29.9,30.65,West,267,0.0,0.0,89,0.00,,SKC,0.00,VWS V14.01,2013-04-22 09:00:00,
2013-04-22 05:01:00,32.8,29.9,30.65,West,267,0.0,0.0,89,0.00,,SKC,0.00,VWS V14.01,2013-04-22 09:01:00,
2013-04-22 05:03:00,32.8,29.9,30.65,West,267,0.0,0.0,89,0.00,,SKC,0.00,VWS V14.01,2013-04-22 09:03:00,
2013-04-22 05:04:00,32.8,29.9,30.65,West,265,0.0,0.0,89,0.00,,SKC,0.00,VWS V14.01,2013-04-22 09:04:00,
2013-04-22 05:05:00,32.8,30.2,30.65,West,264,0.0,0.0,90,0.00,,SKC,0.00,VWS V14.01,2013-04-22 09:05:00,
2013-04-22 05:06:00,32.8,30.2,30.65,West,263,0.0,0.0,90,0.00,,SKC,0.00,VWS V14.01,2013-04-22 09:06:00,
2013-04-22 05:09:00,32.9,30.3,30.65,West,261,0.0,0.0,90,0.00,,SKC,0.00,VWS V14.01,2013-04-22 09:09:00,
2013-04-22 05:10:00,33.8,30.6,30.64,West,267,0.0,0.0,88,0.00,,SKC,0.00,VWS V14.01,2013-04-22 09:10:00,
2013-04-22 05:11:00,32.9,30.3,30.65,West,263,0.0,0.0,90,0.00,,SKC,0.00,VWS V14.01,2013-04-22 09:11:00,
2013-04-22 05:13:00,33.1,30.5,30.65,West,263,0.0,0.0,90,0.00,,SKC,0.00,VWS V14.01,2013-04-22 09:13:00,
2013-04-22 05:14:00,33.1,30.5,30.65,West,263,0.0,0.0,90,0.00,,SKC,0.00,VWS V14.01,2013-04-22 09:14:00,
2013-04-22 05:15:00,33.1,30.5,30.65,West,261,0.0,0.0,90,0.00,,SKC,0.00,VWS V14.01,2013-04-22 09:15:00,
2013-04-22 05:16:00,33.1,30.5,30.65,West,263,0.0,0.0,90,0.00,,SKC,0.00,VWS V14.01,2013-04-22 09:16:00,
2013-04-22 05:17:00,33.1,30.5,30.65,West,263,0.0,0.0,90,0.00,,SKC,0.00,VWS V14.01,2013-04-22 09:17:00,
2013-04-22 05:18:00,33.1,30.8,30.65,West,261,0.0,0.0,91,0.00,,SKC,0.00,VWS V14.01,2013-04-22 09:18:00,
2013-04-22 05:20:00,33.2,30.9,30.65,West,261,0.0,0.0,91,0.00,,SKC,0.00,VWS V14.01,2013-04-22 09:20:00,
2013-04-22 05:21:00,33.2,30.9,30.65,West,263,0.0,0.0,91,0.00,,SKC,0.00,VWS V14.01,2013-04-22 09:21:00,
2013-04-22 05:23:00,33.4,31.1,30.65,West,264,0.0,0.0,91,0.00,,SKC,0.00,VWS V14.01,2013-04-22 09:23:00,
2013-04-22 05:25:00,33.4,31.1,30.65,West,261,0.0,0.0,91,0.00,,SKC,0.00,VWS V14.01,2013-04-22 09:25:00,
2013-04-22 05:26:00,33.4,31.1,30.65,West,263,0.0,0.0,91,0.00,,SKC,0.00,VWS V14.01,2013-04-22 09:26:00,
2013-04-22 05:27:00,33.4,31.1,30.65,West,263,0.0,0.0,91,0.00,,SKC,0.00,VWS V14.01,2013-04-22 09:27:00,
2013-04-22 05:28:00,33.5,31.2,30.65,West,263,0.0,0.0,91,0.00,,SKC,0.00,VWS V14.01,2013-04-22 09:28:00,
2013-04-22 05:29:00,33.5,31.2,30.65,West,264,0.0,0.0,91,0.00,,SKC,0.00,VWS V14.01,2013-04-22 09:29:00,
2013-04-22 05:30:00,33.5,31.2,30.65,West,263,0.0,0.0,91,0.00,,SKC,0.00,VWS V14.01,2013-04-22 09:30:00,
2013-04-22 05:31:00,33.5,31.2,30.65,West,261,0.0,0.0,91,0.00,,SKC,0.00,VWS V14.01,2013-04-22 09:31:00,
2013-04-22 05:32:00,33.5,31.2,30.65,West,261,0.0,0.0,91,0.00,,SKC,0.00,VWS V14.01,2013-04-22 09:32:00,
2013-04-22 05:33:00,33.4,31.1,30.65,West,260,0.0,0.0,91,0.00,,SKC,0.00,VWS V14.01,2013-04-22 09:33:00,
2013-04-22 05:34:00,33.4,31.1,30.65,West,261,0.0,0.0,91,0.00,,SKC,0.00,VWS V14.01,2013-04-22 09:34:00,
2013-04-22 05:35:00,33.4,31.1,30.65,West,264,0.0,0.0,91,0.00,,SKC,0.00,VWS V14.01,2013-04-22 09:35:00,
2013-04-22 05:36:00,33.4,30.8,30.65,West,261,0.0,0.0,90,0.00,,SKC,0.00,VWS V14.01,2013-04-22 09:36:00,
2013-04-22 05:38:00,33.4,30.8,30.65,West,261,0.0,0.0,90,0.00,,SKC,0.00,VWS V14.01,2013-04-22 09:38:00,
2013-04-22 05:40:00,33.4,30.8,30.65,West,260,0.0,0.0,90,0.00,,SKC,0.00,VWS V14.01,2013-04-22 09:40:00,
2013-04-22 05:41:00,33.4,30.8,30.65,West,261,0.0,0.0,90,0.00,,SKC,0.00,VWS V14.01,2013-04-22 09:41:00,
2013-04-22 05:43:00,33.4,30.5,30.65,West,261,0.0,0.0,89,0.00,,SKC,0.00,VWS V14.01,2013-04-22 09:43:00,
2013-04-22 05:44:00,33.4,30.5,30.65,West,261,0.0,0.0,89,0.00,,SKC,0.00,VWS V14.01,2013-04-22 09:44:00,
2013-04-22 05:45:00,33.4,30.5,30.65,West,260,0.0,0.0,89,0.00,,SKC,0.00,VWS V14.01,2013-04-22 09:45:00,
2013-04-22 05:47:00,33.4,30.2,30.65,West,261,0.0,0.0,88,0.00,,SKC,0.00,VWS V14.01,2013-04-22 09:47:00,
2013-04-22 05:48:00,33.4,30.2,30.65,West,261,0.0,0.0,88,0.00,,SKC,0.00,VWS V14.01,2013-04-22 09:48:00,
2013-04-22 05:49:00,33.4,30.2,30.65,West,260,0.0,0.0,88,0.00,,SKC,0.00,VWS V14.01,2013-04-22 09:49:00,
2013-04-22 05:50:00,32.9,30.0,30.65,West,268,0.0,0.0,89,0.00,,SKC,0.00,VWS V14.01,2013-04-22 09:50:00,
2013-04-22 05:51:00,33.4,30.2,30.65,West,261,0.0,0.0,88,0.00,,SKC,0.00,VWS V14.01,2013-04-22 09:51:00,
2013-04-22 05:52:00,33.5,30.3,30.65,West,261,0.0,0.0,88,0.00,,SKC,0.00,VWS V14.01,2013-04-22 09:52:00,
2013-04-22 05:53:00,33.5,30.0,30.65,West,260,0.0,0.0,87,0.00,,SKC,0.00,VWS V14.01,2013-04-22 09:53:00,
2013-04-22 05:55:00,33.5,30.0,30.65,West,261,0.0,0.0,87,0.00,,SKC,0.00,VWS V14.01,2013-04-22 09:55:00,
2013-04-22 05:56:00,33.5,29.8,30.65,West,261,0.0,0.0,86,0.00,,SKC,0.00,VWS V14.01,2013-04-22 09:56:00,
2013-04-22 05:57:00,33.5,29.8,30.65,West,277,0.0,0.0,86,0.00,,SKC,0.00,VWS V14.01,2013-04-22 09:57:00,
2013-04-22 05:58:00,33.5,29.8,30.65,West,261,0.0,0.0,86,0.00,,SKC,0.00,VWS V14.01,2013-04-22 09:58:00,
2013-04-22 06:00:00,33.7,30.0,30.65,West,260,0.0,0.0,86,0.00,,SKC,0.00,VWS V14.01,2013-04-22 10:00:00,
2013-04-22 06:01:00,33.7,29.7,30.65,WSW,258,0.0,0.0,85,0.00,,SKC,0.00,VWS V14.01,2013-04-22 10:01:00,
2013-04-22 06:02:00,33.7,29.7,30.65,West,261,0.0,2.0,85,0.00,,SKC,0.00,VWS V14.01,2013-04-22 10:02:00,
2013-04-22 06:03:00,33.7,29.7,30.65,West,260,0.0,2.0,85,0.00,,SKC,0.00,VWS V14.01,2013-04-22 10:03:00,
2013-04-22 06:04:00,33.7,29.7,30.65,West,260,0.0,2.0,85,0.00,,SKC,0.00,VWS V14.01,2013-04-22 10:04:00,
2013-04-22 06:05:00,33.7,29.7,30.65,West,261,0.0,0.0,85,0.00,,SKC,0.00,VWS V14.01,2013-04-22 10:05:00,
2013-04-22 06:08:00,33.8,29.8,30.65,West,263,0.0,0.0,85,0.00,,SKC,0.00,VWS V14.01,2013-04-22 10:08:00,
2013-04-22 06:09:00,33.8,29.8,30.65,West,261,0.0,0.0,85,0.00,,SKC,0.00,VWS V14.01,2013-04-22 10:09:00,
2013-04-22 06:10:00,33.8,29.8,30.65,West,260,0.0,0.0,85,0.00,,SKC,0.00,VWS V14.01,2013-04-22 10:10:00,
2013-04-22 06:13:00,34.0,29.7,30.65,West,261,0.0,0.0,84,0.00,,SKC,0.00,VWS V14.01,2013-04-22 10:13:00,
2013-04-22 06:14:00,34.0,29.7,30.65,West,263,0.0,0.0,84,0.00,,SKC,0.00,VWS V14.01,2013-04-22 10:14:00,
2013-04-22 06:15:00,34.0,29.7,30.66,West,263,0.0,0.0,84,0.00,,SKC,0.00,VWS V14.01,2013-04-22 10:15:00,
2013-04-22 06:19:00,34.1,29.5,30.66,West,261,2.0,2.0,83,0.00,,SKC,0.00,VWS V14.01,2013-04-22 10:19:00,
2013-04-22 06:20:00,34.1,29.5,30.66,West,264,0.0,0.0,83,0.00,,SKC,0.00,VWS V14.01,2013-04-22 10:20:00,
2013-04-22 06:24:00,34.3,29.7,30.66,West,261,0.0,0.0,83,0.00,,SKC,0.00,VWS V14.01,2013-04-22 10:24:00,
2013-04-22 06:25:00,34.3,29.7,30.66,West,263,2.0,2.0,83,0.00,,SKC,0.00,VWS V14.01,2013-04-22 10:25:00,
2013-04-22 06:26:00,34.3,29.7,30.66,WNW,296,1.0,1.0,83,0.00,,SKC,0.00,VWS V14.01,2013-04-22 10:26:00,
2013-04-22 06:29:00,34.4,29.8,30.66,WNW,288,0.0,1.0,83,0.00,,SKC,0.00,VWS V14.01,2013-04-22 10:29:00,
2013-04-22 06:30:00,34.4,29.8,30.66,WNW,287,1.0,1.0,83,0.00,,SKC,0.00,VWS V14.01,2013-04-22 10:30:00,
2013-04-22 06:32:00,34.4,29.5,30.66,WNW,288,0.0,1.0,82,0.00,,SKC,0.00,VWS V14.01,2013-04-22 10:32:00,
2013-04-22 06:34:00,34.6,29.7,30.66,WNW,288,0.0,1.0,82,0.00,,SKC,0.00,VWS V14.01,2013-04-22 10:34:00,
2013-04-22 06:35:00,34.6,29.7,30.66,WNW,291,2.0,2.0,82,0.00,,SKC,0.00,VWS V14.01,2013-04-22 10:35:00,
2013-04-22 06:37:00,34.7,29.5,30.66,WNW,291,0.0,2.0,81,0.00,,SKC,0.00,VWS V14.01,2013-04-22 10:37:00,
2013-04-22 06:39:00,34.9,29.7,30.66,WNW,289,0.0,2.0,81,0.00,,SKC,0.00,VWS V14.01,2013-04-22 10:39:00,
2013-04-22 06:40:00,34.9,29.7,30.66,WNW,291,0.0,2.0,81,0.00,,SKC,0.00,VWS V14.01,2013-04-22 10:40:00,
2013-04-22 06:41:00,35.0,29.8,30.66,WNW,291,0.0,0.0,81,0.00,,SKC,0.00,VWS V14.01,2013-04-22 10:41:00,
2013-04-22 06:42:00,35.0,29.5,30.66,WNW,291,0.0,0.0,80,0.00,,SKC,0.00,VWS V14.01,2013-04-22 10:42:00,
2013-04-22 06:45:00,35.2,29.7,30.67,NW,308,1.0,3.0,80,0.00,,SKC,0.00,VWS V14.01,2013-04-22 10:45:00,
2013-04-22 06:46:00,35.3,29.8,30.67,NW,308,0.0,1.0,80,0.00,,SKC,0.00,VWS V14.01,2013-04-22 10:46:00,
2013-04-22 06:47:00,35.3,29.8,30.67,NW,306,1.0,2.0,80,0.00,,SKC,0.00,VWS V14.01,2013-04-22 10:47:00,
2013-04-22 06:50:00,35.6,30.0,30.67,NW,306,0.0,2.0,80,0.00,,SKC,0.00,VWS V14.01,2013-04-22 10:50:00,
2013-04-22 06:51:00,35.6,29.7,30.67,NW,306,0.0,0.0,79,0.00,,SKC,0.00,VWS V14.01,2013-04-22 10:51:00,
2013-04-22 06:52:00,35.6,29.7,30.67,NW,305,0.0,0.0,79,0.00,,SKC,0.00,VWS V14.01,2013-04-22 10:52:00,
2013-04-22 06:53:00,35.8,29.9,30.67,NW,306,1.0,1.0,79,0.00,,SKC,0.00,VWS V14.01,2013-04-22 10:53:00,
2013-04-22 06:55:00,35.9,29.7,30.67,NW,308,0.0,2.0,78,0.00,,SKC,0.00,VWS V14.01,2013-04-22 10:55:00,
2013-04-22 06:57:00,36.0,29.8,30.67,NNW,339,1.0,5.0,78,0.00,,SKC,0.00,VWS V14.01,2013-04-22 10:57:00,
2013-04-22 06:58:00,36.2,30.0,30.67,NNW,339,2.0,5.0,78,0.00,,SKC,0.00,VWS V14.01,2013-04-22 10:58:00,
2013-04-22 06:59:00,36.2,29.7,30.67,NNW,339,0.0,5.0,77,0.00,,SKC,0.00,VWS V14.01,2013-04-22 10:59:00,
2013-04-22 07:00:00,36.3,29.8,30.66,NNW,339,3.0,3.0,77,0.00,,SKC,0.00,VWS V14.01,2013-04-22 11:00:00,
2013-04-22 07:01:00,36.3,29.8,30.66,NNW,340,0.0,3.0,77,0.00,,SKC,0.00,VWS V14.01,2013-04-22 11:01:00,
2013-04-22 07:02:00,36.5,30.0,30.66,NNW,339,2.0,3.0,77,0.00,,SKC,0.00,VWS V14.01,2013-04-22 11:02:00,
2013-04-22 07:03:00,36.5,30.0,30.66,NNW,340,2.0,3.0,77,0.00,,SKC,0.00,VWS V14.01,2013-04-22 11:03:00,
2013-04-22 07:04:00,36.6,30.1,30.66,NNW,340,3.0,3.0,77,0.00,,SKC,0.00,VWS V14.01,2013-04-22 11:04:00,
2013-04-22 07:05:00,36.6,29.8,30.66,NNW,340,1.0,1.0,76,0.00,,SKC,0.00,VWS V14.01,2013-04-22 11:05:00,
2013-04-22 07:07:00,36.8,30.0,30.66,NNW,339,0.0,1.0,76,0.00,,SKC,0.00,VWS V14.01,2013-04-22 11:07:00,
2013-04-22 07:09:00,37.0,30.1,30.66,NNW,339,1.0,2.0,76,0.00,,SKC,0.00,VWS V14.01,2013-04-22 11:09:00,
2013-04-22 07:10:00,33.8,29.8,30.65,West,261,0.0,0.0,85,0.00,,SKC,0.00,VWS V14.01,2013-04-22 11:10:00,
2013-04-22 07:11:00,37.2,30.4,30.66,NNW,342,1.0,2.0,76,0.00,,SKC,0.00,VWS V14.01,2013-04-22 11:11:00,
2013-04-22 07:12:00,37.3,30.1,30.66,NNW,342,0.0,2.0,75,0.00,,SKC,0.00,VWS V14.01,2013-04-22 11:12:00,
2013-04-22 07:13:00,37.5,30.3,30.66,NNW,342,0.0,2.0,75,0.00,,SKC,0.00,VWS V14.01,2013-04-22 11:13:00,
2013-04-22 07:14:00,37.6,30.4,30.67,NNW,342,2.0,3.0,75,0.00,,SKC,0.00,VWS V14.01,2013-04-22 11:14:00,
2013-04-22 07:15:00,37.6,30.1,30.67,NNW,340,2.0,3.0,74,0.00,,SKC,0.00,VWS V14.01,2013-04-22 11:15:00,
2013-04-22 07:16:00,37.8,30.3,30.67,NNW,342,2.0,3.0,74,0.00,,SKC,0.00,VWS V14.01,2013-04-22 11:16:00,
2013-04-22 07:18:00,38.0,30.1,30.67,NNW,340,0.0,3.0,73,0.00,,SKC,0.00,VWS V14.01,2013-04-22 11:18:00,
2013-04-22 07:19:00,38.2,30.3,30.67,South,169,1.0,5.0,73,0.00,,SKC,0.00,VWS V14.01,2013-04-22 11:19:00,
2013-04-22 07:20:00,38.2,30.3,30.67,SSE,160,2.0,5.0,73,0.00,,SKC,0.00,VWS V14.01,2013-04-22 11:20:00,
2013-04-22 07:21:00,38.3,30.1,30.67,SE,145,2.0,3.0,72,0.00,,SKC,0.00,VWS V14.01,2013-04-22 11:21:00,
2013-04-22 07:23:00,38.6,30.4,30.67,SE,145,2.0,3.0,72,0.00,,SKC,0.00,VWS V14.01,2013-04-22 11:23:00,
2013-04-22 07:25:00,38.9,30.3,30.67,South,172,2.0,6.0,71,0.00,,SKC,0.00,VWS V14.01,2013-04-22 11:25:00,
2013-04-22 07:26:00,39.1,30.5,30.67,SSE,160,2.0,3.0,71,0.00,,SKC,0.00,VWS V14.01,2013-04-22 11:26:00,
2013-04-22 07:28:00,39.3,30.4,30.67,SSE,167,4.0,6.0,70,0.00,,SKC,0.00,VWS V14.01,2013-04-22 11:28:00,
2013-04-22 07:30:00,39.6,30.6,30.67,SSE,168,0.0,3.0,70,0.00,,SKC,0.00,VWS V14.01,2013-04-22 11:30:00,
2013-04-22 07:32:00,39.8,30.8,30.67,SSE,165,2.0,3.0,70,0.00,,SKC,0.00,VWS V14.01,2013-04-22 11:32:00,
2013-04-22 07:33:00,40.1,31.1,30.67,South,178,5.0,6.0,70,0.00,,SKC,0.00,VWS V14.01,2013-04-22 11:33:00,
2013-04-22 07:35:00,40.3,31.0,30.67,SSE,161,1.0,3.0,69,0.00,,SKC,0.00,VWS V14.01,2013-04-22 11:35:00,
2013-04-22 07:37:00,40.5,31.1,30.67,South,171,2.0,4.0,69,0.00,,SKC,0.00,VWS V14.01,2013-04-22 11:37:00,
2013-04-22 07:38:00,40.6,31.2,30.67,SSE,160,5.0,5.0,69,0.00,,SKC,0.00,VWS V14.01,2013-04-22 11:38:00,
2013-04-22 07:39:00,40.6,31.2,30.67,South,169,5.0,7.0,69,0.00,,SKC,0.00,VWS V14.01,2013-04-22 11:39:00,
2013-04-22 07:40:00,40.9,31.2,30.67,South,184,3.0,3.0,68,0.00,,SKC,0.00,VWS V14.01,2013-04-22 11:40:00,
2013-04-22 07:42:00,41.1,31.4,30.67,South,186,3.0,8.0,68,0.00,,SKC,0.00,VWS V14.01,2013-04-22 11:42:00,
2013-04-22 07:43:00,41.2,31.5,30.67,South,178,5.0,8.0,68,0.00,,SKC,0.00,VWS V14.01,2013-04-22 11:43:00,
2013-04-22 07:44:00,41.3,31.2,30.67,South,178,2.0,8.0,67,0.00,,SKC,0.00,VWS V14.01,2013-04-22 11:44:00,
2013-04-22 07:45:00,41.3,31.2,30.67,SSE,158,4.0,10.0,67,0.00,,SKC,0.00,VWS V14.01,2013-04-22 11:45:00,
2013-04-22 07:47:00,41.6,31.5,30.67,South,185,5.0,8.0,67,0.00,,SKC,0.00,VWS V14.01,2013-04-22 11:47:00,
2013-04-22 07:48:00,41.6,31.5,30.67,South,185,2.0,8.0,67,0.00,,SKC,0.00,VWS V14.01,2013-04-22 11:48:00,
2013-04-22 07:49:00,41.8,31.3,30.67,South,174,6.0,10.0,66,0.00,,SKC,0.00,VWS V14.01,2013-04-22 11:49:00,
2013-04-22 07:50:00,41.8,31.3,30.67,SSE,164,6.0,8.0,66,0.00,,SKC,0.00,VWS V14.01,2013-04-22 11:50:00,
2013-04-22 07:52:00,41.9,31.0,30.67,SSE,168,3.0,10.0,65,0.00,,SKC,0.00,VWS V14.01,2013-04-22 11:52:00,
2013-04-22 07:53:00,42.1,31.2,30.67,SSW,213,2.0,10.0,65,0.00,,SKC,0.00,VWS V14.01,2013-04-22 11:53:00,
2013-04-22 07:55:00,42.2,31.3,30.67,South,169,1.0,10.0,65,0.00,,SKC,0.00,VWS V14.01,2013-04-22 11:55:00,
2013-04-22 07:58:00,42.5,31.2,30.67,South,189,3.0,6.0,64,0.00,,SKC,0.00,VWS V14.01,2013-04-22 11:58:00,
2013-04-22 07:59:00,42.6,31.3,30.67,South,175,2.0,7.0,64,0.00,,SKC,0.00,VWS V14.01,2013-04-22 11:59:00,
2013-04-22 08:00:00,42.8,31.1,30.67,SSW,209,5.0,7.0,63,0.00,,SKC,0.00,VWS V14.01,2013-04-22 12:00:00,
2013-04-22 08:01:00,42.8,30.7,30.67,SSW,200,2.0,6.0,62,0.00,,SKC,0.00,VWS V14.01,2013-04-22 12:01:00,
2013-04-22 08:03:00,42.9,31.2,30.67,South,178,2.0,6.0,63,0.00,,SKC,0.00,VWS V14.01,2013-04-22 12:03:00,
2013-04-22 08:04:00,43.1,31.4,30.67,SSE,167,1.0,6.0,63,0.00,,SKC,0.00,VWS V14.01,2013-04-22 12:04:00,
2013-04-22 08:05:00,43.2,31.5,30.67,SW,222,2.0,4.0,63,0.00,,SKC,0.00,VWS V14.01,2013-04-22 12:05:00,
2013-04-22 08:08:00,43.5,31.4,30.67,South,191,1.0,5.0,62,0.00,,SKC,0.00,VWS V14.01,2013-04-22 12:08:00,
2013-04-22 08:09:00,43.6,31.5,30.67,SW,217,4.0,5.0,62,0.00,,SKC,0.00,VWS V14.01,2013-04-22 12:09:00,
2013-04-22 08:10:00,43.6,30.6,30.67,SSW,193,11.0,11.0,60,0.00,,SKC,0.00,VWS V14.01,2013-04-22 12:10:00,
2013-04-22 08:11:00,43.6,30.6,30.67,SSW,193,11.0,11.0,60,0.00,,SKC,0.00,VWS V14.01,2013-04-22 12:11:00,
2013-04-22 08:13:00,43.5,30.5,30.67,South,174,3.0,11.0,60,0.00,,SKC,0.00,VWS V14.01,2013-04-22 12:13:00,
2013-04-22 08:14:00,43.6,31.0,30.67,South,184,1.0,11.0,61,0.00,,SKC,0.00,VWS V14.01,2013-04-22 12:14:00,
2013-04-22 08:15:00,37.6,30.1,30.67,NNW,340,2.0,3.0,74,0.00,,SKC,0.00,VWS V14.01,2013-04-22 12:15:00,
2013-04-22 08:16:00,43.8,31.6,30.67,SW,233,3.0,3.0,62,0.00,,SKC,0.00,VWS V14.01,2013-04-22 12:16:00,
2013-04-22 08:19:00,44.2,31.2,30.67,SSW,195,2.0,5.0,60,0.00,,SKC,0.00,VWS V14.01,2013-04-22 12:19:00,
2013-04-22 08:20:00,44.2,31.2,30.67,SSW,193,0.0,5.0,60,0.00,,SKC,0.00,VWS V14.01,2013-04-22 12:20:00,
2013-04-22 08:21:00,44.2,31.2,30.67,South,179,7.0,14.0,60,0.00,,SKC,0.00,VWS V14.01,2013-04-22 12:21:00,
2013-04-22 08:24:00,44.1,31.1,30.67,SSW,196,0.0,14.0,60,0.00,,SKC,0.00,VWS V14.01,2013-04-22 12:24:00,
2013-04-22 08:25:00,44.2,30.8,30.67,SSE,164,6.0,14.0,59,0.00,,SKC,0.00,VWS V14.01,2013-04-22 12:25:00,
2013-04-22 08:26:00,44.2,30.8,30.67,SSE,161,12.0,12.0,59,0.00,,SKC,0.00,VWS V14.01,2013-04-22 12:26:00,
2013-04-22 08:27:00,44.2,30.0,30.67,South,181,5.0,16.0,57,0.00,,SKC,0.00,VWS V14.01,2013-04-22 12:27:00,
2013-04-22 08:29:00,43.9,30.1,30.67,SSE,168,2.0,16.0,58,0.00,,SKC,0.00,VWS V14.01,2013-04-22 12:29:00,
2013-04-22 08:30:00,43.9,30.1,30.67,South,185,0.0,16.0,58,0.00,,SKC,0.00,VWS V14.01,2013-04-22 12:30:00,
2013-04-22 08:31:00,44.2,30.8,30.67,SW,232,3.0,7.0,59,0.00,,SKC,0.00,VWS V14.01,2013-04-22 12:31:00,
2013-04-22 08:32:00,44.2,30.8,30.67,South,182,6.0,7.0,59,0.00,,SKC,0.00,VWS V14.01,2013-04-22 12:32:00,
2013-04-22 08:33:00,44.2,30.0,30.67,SW,222,2.0,7.0,57,0.00,,SKC,0.00,VWS V14.01,2013-04-22 12:33:00,
2013-04-22 08:34:00,44.3,30.0,30.67,SW,229,6.0,7.0,57,0.00,,SKC,0.00,VWS V14.01,2013-04-22 12:34:00,
2013-04-22 08:35:00,44.3,30.0,30.67,SSE,158,11.0,11.0,57,0.00,,SKC,0.00,VWS V14.01,2013-04-22 12:35:00,
2013-04-22 08:37:00,44.5,30.7,30.67,South,181,8.0,11.0,58,0.00,,SKC,0.00,VWS V14.01,2013-04-22 12:37:00,
2013-04-22 08:38:00,44.5,30.7,30.67,SW,217,2.0,11.0,58,0.00,,SKC,0.00,VWS V14.01,2013-04-22 12:38:00,
2013-04-22 08:39:00,44.6,29.9,30.67,SSW,213,1.0,11.0,56,0.00,,SKC,0.00,VWS V14.01,2013-04-22 12:39:00,
2013-04-22 08:40:00,44.6,29.9,30.67,SW,226,3.0,6.0,56,0.00,,SKC,0.00,VWS V14.01,2013-04-22 12:40:00,
2013-04-22 08:42:00,44.8,30.1,30.67,South,182,3.0,7.0,56,0.00,,SKC,0.00,VWS V14.01,2013-04-22 12:42:00,
2013-04-22 08:43:00,44.9,29.3,30.67,SW,223,2.0,8.0,54,0.00,,SKC,0.00,VWS V14.01,2013-04-22 12:43:00,
2013-04-22 08:44:00,45.1,29.5,30.67,SSW,196,1.0,8.0,54,0.00,,SKC,0.00,VWS V14.01,2013-04-22 12:44:00,
2013-04-22 08:45:00,45.1,29.0,30.67,SSW,202,8.0,12.0,53,0.00,,SKC,0.00,VWS V14.01,2013-04-22 12:45:00,
2013-04-22 08:47:00,45.2,28.6,30.67,SSE,161,6.0,12.0,52,0.00,,SKC,0.00,VWS V14.01,2013-04-22 12:47:00,
2013-04-22 08:49:00,45.2,28.2,30.67,South,176,8.0,12.0,51,0.00,,SKC,0.00,VWS V14.01,2013-04-22 12:49:00,
2013-04-22 08:50:00,41.8,31.3,30.67,South,179,8.0,10.0,66,0.00,,SKC,0.00,VWS V14.01,2013-04-22 12:50:00,
2013-04-22 08:51:00,45.1,27.6,30.67,SSW,202,1.0,4.0,50,0.00,,SKC,0.00,VWS V14.01,2013-04-22 12:51:00,
2013-04-22 08:52:00,45.2,27.7,30.67,SSW,198,7.0,10.0,50,0.00,,SKC,0.00,VWS V14.01,2013-04-22 12:52:00,
2013-04-22 08:53:00,45.2,27.7,30.67,SW,236,7.0,10.0,50,0.00,,SKC,0.00,VWS V14.01,2013-04-22 12:53:00,
2013-04-22 08:54:00,45.2,27.2,30.67,SSW,196,2.0,10.0,49,0.00,,SKC,0.00,VWS V14.01,2013-04-22 12:54:00,
2013-04-22 08:55:00,42.2,31.3,30.67,SSE,167,1.0,10.0,65,0.00,,SKC,0.00,VWS V14.01,2013-04-22 12:55:00,
2013-04-22 08:56:00,45.5,27.5,30.67,WSW,241,7.0,8.0,49,0.00,,SKC,0.00,VWS V14.01,2013-04-22 12:56:00,
2013-04-22 08:58:00,45.8,27.7,30.67,SW,216,2.0,8.0,49,0.00,,SKC,0.00,VWS V14.01,2013-04-22 12:58:00,
2013-04-22 08:59:00,46.0,27.9,30.66,WSW,240,4.0,8.0,49,0.00,,SKC,0.00,VWS V14.01,2013-04-22 12:59:00,
2013-04-22 09:00:00,42.8,31.1,30.67,SSW,209,5.0,7.0,63,0.00,,SKC,0.00,VWS V14.01,2013-04-22 13:00:00,
2013-04-22 09:01:00,46.1,28.0,30.66,SW,222,0.0,7.0,49,0.00,,SKC,0.00,VWS V14.01,2013-04-22 13:01:00,
2013-04-22 09:02:00,46.1,28.0,30.66,SSE,167,6.0,7.0,49,0.00,,SKC,0.00,VWS V14.01,2013-04-22 13:02:00,
2013-04-22 09:03:00,46.1,27.0,30.66,South,176,5.0,7.0,47,0.00,,SKC,0.00,VWS V14.01,2013-04-22 13:03:00,
2013-04-22 09:04:00,46.1,27.0,30.66,SSW,205,3.0,7.0,47,0.00,,SKC,0.00,VWS V14.01,2013-04-22 13:04:00,
2013-04-22 09:05:00,46.1,27.0,30.66,SW,224,7.0,7.0,47,0.00,,SKC,0.00,VWS V14.01,2013-04-22 13:05:00,
2013-04-22 09:07:00,46.1,26.5,30.66,South,182,6.0,13.0,46,0.00,,SKC,0.00,VWS V14.01,2013-04-22 13:07:00,
2013-04-22 09:08:00,46.1,26.5,30.66,SW,226,2.0,13.0,46,0.00,,SKC,0.00,VWS V14.01,2013-04-22 13:08:00,
2013-04-22 09:09:00,46.2,27.1,30.66,SW,229,0.0,13.0,47,0.00,,SKC,0.00,VWS V14.01,2013-04-22 13:09:00,
2013-04-22 09:10:00,46.5,27.4,30.66,SW,222,5.0,5.0,47,0.00,,SKC,0.00,VWS V14.01,2013-04-22 13:10:00,
2013-04-22 09:12:00,46.7,27.6,30.66,South,174,4.0,6.0,47,0.00,,SKC,0.00,VWS V14.01,2013-04-22 13:12:00,
2013-04-22 09:13:00,47.0,27.3,30.66,SW,230,4.0,7.0,46,0.00,,SKC,0.00,VWS V14.01,2013-04-22 13:13:00,
2013-04-22 09:14:00,47.0,27.3,30.66,SSW,200,3.0,7.0,46,0.00,,SKC,0.00,VWS V14.01,2013-04-22 13:14:00,
2013-04-22 09:15:00,47.3,27.6,30.66,South,176,2.0,3.0,46,0.00,,SKC,0.00,VWS V14.01,2013-04-22 13:15:00,
2013-04-22 09:17:00,47.4,27.1,30.66,SW,224,5.0,8.0,45,0.00,,SKC,0.00,VWS V14.01,2013-04-22 13:17:00,
2013-04-22 09:18:00,47.4,27.1,30.66,South,178,8.0,8.0,45,0.00,,SKC,0.00,VWS V14.01,2013-04-22 13:18:00,
2013-04-22 09:19:00,47.4,27.1,30.66,SSW,198,2.0,13.0,45,0.00,,SKC,0.00,VWS V14.01,2013-04-22 13:19:00,
2013-04-22 09:20:00,47.3,27.0,30.66,SW,233,0.0,13.0,45,0.00,,SKC,0.00,VWS V14.01,2013-04-22 13:20:00,
2013-04-22 09:21:00,47.3,27.0,30.66,SW,224,6.0,6.0,45,0.00,,SKC,0.00,VWS V14.01,2013-04-22 13:21:00,
2013-04-22 09:23:00,47.4,27.1,30.66,SW,230,5.0,11.0,45,0.00,,SKC,0.00,VWS V14.01,2013-04-22 13:23:00,
2013-04-22 09:24:00,47.4,27.1,30.66,SSW,196,3.0,13.0,45,0.00,,SKC,0.00,VWS V14.01,2013-04-22 13:24:00,
2013-04-22 09:25:00,47.1,26.9,30.66,SW,217,4.0,13.0,45,0.00,,SKC,0.00,VWS V14.01,2013-04-22 13:25:00,
2013-04-22 09:26:00,47.1,25.8,30.66,SW,216,3.0,10.0,43,0.00,,SKC,0.00,VWS V14.01,2013-04-22 13:26:00,
2013-04-22 09:28:00,47.0,25.7,30.66,SW,220,4.0,11.0,43,0.00,,SKC,0.00,VWS V14.01,2013-04-22 13:28:00,
2013-04-22 09:29:00,47.1,25.8,30.67,SW,224,2.0,11.0,43,0.00,,SKC,0.00,VWS V14.01,2013-04-22 13:29:00,
2013-04-22 09:30:00,47.3,26.0,30.67,SW,220,2.0,2.0,43,0.00,,SKC,0.00,VWS V14.01,2013-04-22 13:30:00,
2013-04-22 09:31:00,47.3,26.0,30.67,SW,230,7.0,12.0,43,0.00,,SKC,0.00,VWS V14.01,2013-04-22 13:31:00,
2013-04-22 09:33:00,47.3,25.4,30.67,SSW,212,2.0,12.0,42,0.00,,SKC,0.00,VWS V14.01,2013-04-22 13:33:00,
2013-04-22 09:34:00,47.4,25.5,30.67,SW,223,9.0,12.0,42,0.00,,SKC,0.00,VWS V14.01,2013-04-22 13:34:00,
2013-04-22 09:35:00,47.4,25.5,30.67,SW,215,3.0,3.0,42,0.00,,SKC,0.00,VWS V14.01,2013-04-22 13:35:00,
2013-04-22 09:36:00,47.4,25.5,30.67,SW,227,6.0,8.0,42,0.00,,SKC,0.00,VWS V14.01,2013-04-22 13:36:00,
2013-04-22 09:39:00,47.4,25.5,30.67,South,188,4.0,8.0,42,0.00,,SKC,0.00,VWS V14.01,2013-04-22 13:39:00,
2013-04-22 09:40:00,44.6,29.9,30.67,SSW,210,6.0,11.0,56,0.00,,SKC,0.00,VWS V14.01,2013-04-22 13:40:00,
2013-04-22 09:42:00,47.3,24.2,30.67,SSW,212,0.0,13.0,40,0.00,,SKC,0.00,VWS V14.01,2013-04-22 13:42:00,
2013-04-22 09:44:00,47.7,25.8,30.67,SSE,154,2.0,13.0,42,0.00,,SKC,0.00,VWS V14.01,2013-04-22 13:44:00,
2013-04-22 09:45:00,45.1,29.5,30.67,South,184,0.0,8.0,54,0.00,,SKC,0.00,VWS V14.01,2013-04-22 13:45:00,
2013-04-22 09:47:00,48.0,25.4,30.68,SSW,213,1.0,7.0,41,0.00,,SKC,0.00,VWS V14.01,2013-04-22 13:47:00,
2013-04-22 09:50:00,47.9,23.5,30.68,WSW,239,10.0,14.0,38,0.00,,SKC,0.00,VWS V14.01,2013-04-22 13:50:00,
2013-04-22 09:53:00,48.0,24.2,30.68,WSW,239,14.0,14.0,39,0.00,,SKC,0.00,VWS V14.01,2013-04-22 13:53:00,
2013-04-22 09:55:00,48.0,23.6,30.68,SW,227,6.0,6.0,38,0.00,,SKC,0.00,VWS V14.01,2013-04-22 13:55:00,
2013-04-22 09:58:00,48.0,24.2,30.68,SSW,209,2.0,7.0,39,0.00,,SKC,0.00,VWS V14.01,2013-04-22 13:58:00,
2013-04-22 09:59:00,48.2,23.8,30.68,South,191,6.0,7.0,38,0.00,,SKC,0.00,VWS V14.01,2013-04-22 13:59:00,
2013-04-22 10:00:00,48.2,23.2,30.69,SW,229,10.0,12.0,37,0.00,,SKC,0.00,VWS V14.01,2013-04-22 14:00:00,
2013-04-22 10:01:00,48.2,23.2,30.69,WSW,247,8.0,12.0,37,0.00,,SKC,0.00,VWS V14.01,2013-04-22 14:01:00,
2013-04-22 10:03:00,48.0,22.3,30.69,SW,236,18.0,18.0,36,0.00,,SKC,0.00,VWS V14.01,2013-04-22 14:03:00,
2013-04-22 10:05:00,47.9,22.2,30.69,WSW,237,11.0,11.0,36,0.00,,SKC,0.00,VWS V14.01,2013-04-22 14:05:00,
2013-04-22 10:06:00,47.9,22.2,30.69,SSW,198,6.0,11.0,36,0.00,,SKC,0.00,VWS V14.01,2013-04-22 14:06:00,
2013-04-22 10:08:00,48.2,23.2,30.69,SW,234,4.0,11.0,37,0.00,,SKC,0.00,VWS V14.01,2013-04-22 14:08:00,
2013-04-22 10:10:00,46.4,27.3,30.66,South,185,0.0,13.0,47,0.00,,SKC,0.00,VWS V14.01,2013-04-22 14:10:00,
2013-04-22 10:11:00,48.3,23.9,30.69,SSW,200,1.0,3.0,38,0.00,,SKC,0.00,VWS V14.01,2013-04-22 14:11:00,
2013-04-22 10:13:00,48.3,23.3,30.69,SSE,165,0.0,16.0,37,0.00,,SKC,0.00,VWS V14.01,2013-04-22 14:13:00,
2013-04-22 10:14:00,48.3,23.3,30.69,SSW,202,9.0,16.0,37,0.00,,SKC,0.00,VWS V14.01,2013-04-22 14:14:00,
2013-04-22 10:15:00,47.1,27.4,30.66,SSW,212,3.0,7.0,46,0.00,,SKC,0.00,VWS V14.01,2013-04-22 14:15:00,
2013-04-22 10:16:00,48.2,23.8,30.69,SW,220,9.0,9.0,38,0.00,,SKC,0.00,VWS V14.01,2013-04-22 14:16:00,
2013-04-22 10:17:00,48.2,23.8,30.69,SSW,213,7.0,9.0,38,0.00,,SKC,0.00,VWS V14.01,2013-04-22 14:17:00,
2013-04-22 10:18:00,48.2,23.8,30.69,WSW,247,7.0,10.0,38,0.00,,SKC,0.00,VWS V14.01,2013-04-22 14:18:00,
2013-04-22 10:20:00,48.2,23.8,30.69,SSE,155,3.0,3.0,38,0.00,,SKC,0.00,VWS V14.01,2013-04-22 14:20:00,
2013-04-22 10:21:00,48.5,24.1,30.69,South,175,11.0,11.0,38,0.00,,SKC,0.00,VWS V14.01,2013-04-22 14:21:00,
2013-04-22 10:22:00,48.6,24.2,30.69,SW,229,3.0,11.0,38,0.00,,SKC,0.00,VWS V14.01,2013-04-22 14:22:00,
2013-04-22 10:23:00,48.6,24.2,30.69,SW,215,7.0,13.0,38,0.00,,SKC,0.00,VWS V14.01,2013-04-22 14:23:00,
2013-04-22 10:24:00,48.9,24.4,30.69,SW,223,5.0,13.0,38,0.00,,SKC,0.00,VWS V14.01,2013-04-22 14:24:00,
2013-04-22 10:25:00,48.9,24.4,30.69,SW,233,8.0,9.0,38,0.00,,SKC,0.00,VWS V14.01,2013-04-22 14:25:00,
2013-04-22 10:26:00,48.9,24.4,30.69,South,188,2.0,9.0,38,0.00,,SKC,0.00,VWS V14.01,2013-04-22 14:26:00,
2013-04-22 10:27:00,48.9,24.4,30.69,South,175,3.0,9.0,38,0.00,,SKC,0.00,VWS V14.01,2013-04-22 14:27:00,
2013-04-22 10:28:00,48.9,23.8,30.69,South,181,1.0,11.0,37,0.00,,SKC,0.00,VWS V14.01,2013-04-22 14:28:00,
2013-04-22 10:29:00,48.9,24.4,30.68,South,186,7.0,11.0,38,0.00,,SKC,0.00,VWS V14.01,2013-04-22 14:29:00,
2013-04-22 10:30:00,47.3,26.0,30.67,SW,220,2.0,11.0,43,0.00,,SKC,0.00,VWS V14.01,2013-04-22 14:30:00,
2013-04-22 10:31:00,48.9,24.4,30.68,SSW,205,1.0,2.0,38,0.00,,SKC,0.00,VWS V14.01,2013-04-22 14:31:00,
2013-04-22 10:32:00,49.1,23.3,30.68,SW,236,3.0,11.0,36,0.00,,SKC,0.00,VWS V14.01,2013-04-22 14:32:00,
2013-04-22 10:33:00,49.1,23.3,30.68,South,189,3.0,11.0,36,0.00,,SKC,0.00,VWS V14.01,2013-04-22 14:33:00,
2013-04-22 10:34:00,49.1,22.6,30.68,South,186,2.0,11.0,35,0.00,,SKC,0.00,VWS V14.01,2013-04-22 14:34:00,
2013-04-22 10:35:00,47.4,25.5,30.67,SSW,202,3.0,12.0,42,0.00,,SKC,0.00,VWS V14.01,2013-04-22 14:35:00,
2013-04-22 10:36:00,49.2,24.1,30.68,SSW,195,3.0,5.0,37,0.00,,SKC,0.00,VWS V14.01,2013-04-22 14:36:00,
2013-04-22 10:37:00,49.2,24.7,30.68,SSW,193,1.0,5.0,38,0.00,,SKC,0.00,VWS V14.01,2013-04-22 14:37:00,
2013-04-22 10:39:00,49.4,24.9,30.68,SSE,165,2.0,7.0,38,0.00,,SKC,0.00,VWS V14.01,2013-04-22 14:39:00,
2013-04-22 10:40:00,47.3,24.2,30.67,SSW,199,2.0,8.0,40,0.00,,SKC,0.00,VWS V14.01,2013-04-22 14:40:00,
2013-04-22 10:41:00,49.4,24.2,30.68,WSW,246,2.0,6.0,37,0.00,,SKC,0.00,VWS V14.01,2013-04-22 14:41:00,
2013-04-22 10:42:00,49.4,24.2,30.68,SW,232,7.0,7.0,37,0.00,,SKC,0.00,VWS V14.01,2013-04-22 14:42:00,
2013-04-22 10:44:00,49.2,24.7,30.68,WSW,241,5.0,12.0,38,0.00,,SKC,0.00,VWS V14.01,2013-04-22 14:44:00,
2013-04-22 10:45:00,49.2,25.3,30.68,SW,216,7.0,7.0,39,0.00,,SKC,0.00,VWS V14.01,2013-04-22 14:45:00,
2013-04-22 10:46:00,49.4,24.9,30.68,WSW,237,2.0,7.0,38,0.00,,SKC,0.00,VWS V14.01,2013-04-22 14:46:00,
2013-04-22 10:48:00,49.4,24.9,30.68,West,261,5.0,14.0,38,0.00,,SKC,0.00,VWS V14.01,2013-04-22 14:48:00,
2013-04-22 10:49:00,49.2,24.7,30.68,WSW,237,8.0,14.0,38,0.00,,SKC,0.00,VWS V14.01,2013-04-22 14:49:00,
2013-04-22 10:50:00,48.9,24.4,30.68,SW,217,2.0,7.0,38,0.00,,SKC,0.00,VWS V14.01,2013-04-22 14:50:00,
2013-04-22 10:52:00,48.9,25.0,30.68,WSW,243,6.0,7.0,39,0.00,,SKC,0.00,VWS V14.01,2013-04-22 14:52:00,
2013-04-22 10:53:00,49.2,27.1,30.68,South,181,6.0,7.0,42,0.00,,SKC,0.00,VWS V14.01,2013-04-22 14:53:00,
2013-04-22 10:55:00,49.4,24.9,30.68,South,189,11.0,11.0,38,0.00,,SKC,0.00,VWS V14.01,2013-04-22 14:55:00,
2013-04-22 10:57:00,49.2,25.9,30.68,South,189,10.0,11.0,40,0.00,,SKC,0.00,VWS V14.01,2013-04-22 14:57:00,
2013-04-22 10:58:00,49.2,25.9,30.68,SW,220,0.0,11.0,40,0.00,,SKC,0.00,VWS V14.01,2013-04-22 14:58:00,
2013-04-22 11:00:00,49.2,25.9,30.67,WSW,248,6.0,9.0,40,0.00,,SKC,0.00,VWS V14.01,2013-04-22 15:00:00,
2013-04-22 11:02:00,49.1,25.8,30.67,SW,234,5.0,10.0,40,0.00,,SKC,0.00,VWS V14.01,2013-04-22 15:02:00,
2013-04-22 11:03:00,49.1,25.2,30.67,WSW,248,11.0,11.0,39,0.00,,SKC,0.00,VWS V14.01,2013-04-22 15:03:00,
2013-04-22 11:05:00,48.0,22.3,30.69,SW,220,7.0,18.0,36,0.00,,SKC,0.00,VWS V14.01,2013-04-22 15:05:00,
2013-04-22 11:06:00,49.1,25.8,30.67,South,175,6.0,10.0,40,0.00,,SKC,0.00,VWS V14.01,2013-04-22 15:06:00,
2013-04-22 11:07:00,49.1,25.2,30.67,SW,233,3.0,10.0,39,0.00,,SKC,0.00,VWS V14.01,2013-04-22 15:07:00,
2013-04-22 11:08:00,49.1,25.2,30.67,SW,223,7.0,10.0,39,0.00,,SKC,0.00,VWS V14.01,2013-04-22 15:08:00,
2013-04-22 11:10:00,48.3,23.9,30.69,SSW,195,3.0,11.0,38,0.00,,SKC,0.00,VWS V14.01,2013-04-22 15:10:00,
2013-04-22 11:11:00,49.2,24.7,30.67,SSW,192,5.0,7.0,38,0.00,,SKC,0.00,VWS V14.01,2013-04-22 15:11:00,
2013-04-22 11:12:00,49.4,25.5,30.67,SW,236,0.0,10.0,39,0.00,,SKC,0.00,VWS V14.01,2013-04-22 15:12:00,
2013-04-22 11:13:00,49.5,25.6,30.67,SW,230,5.0,10.0,39,0.00,,SKC,0.00,VWS V14.01,2013-04-22 15:13:00,
2013-04-22 11:14:00,49.6,25.7,30.67,WSW,243,10.0,12.0,39,0.00,,SKC,0.00,VWS V14.01,2013-04-22 15:14:00,
2013-04-22 11:15:00,48.2,23.2,30.69,SW,226,8.0,16.0,37,0.00,,SKC,0.00,VWS V14.01,2013-04-22 15:15:00,
2013-04-22 11:16:00,49.2,23.4,30.67,SW,236,4.0,9.0,36,0.00,,SKC,0.00,VWS V14.01,2013-04-22 15:16:00,
2013-04-22 11:17:00,49.4,24.9,30.67,WSW,257,5.0,14.0,38,0.00,,SKC,0.00,VWS V14.01,2013-04-22 15:17:00,
2013-04-22 11:18:00,49.4,24.2,30.67,South,186,6.0,14.0,37,0.00,,SKC,0.00,VWS V14.01,2013-04-22 15:18:00,
2013-04-22 11:19:00,49.4,24.2,30.67,SW,219,5.0,14.0,37,0.00,,SKC,0.00,VWS V14.01,2013-04-22 15:19:00,
2013-04-22 11:20:00,48.2,23.8,30.69,SW,226,1.0,10.0,38,0.00,,SKC,0.00,VWS V14.01,2013-04-22 15:20:00,
2013-04-22 11:21:00,49.4,24.2,30.67,SW,217,0.0,3.0,37,0.00,,SKC,0.00,VWS V14.01,2013-04-22 15:21:00,
2013-04-22 11:23:00,49.5,24.3,30.67,South,185,3.0,11.0,37,0.00,,SKC,0.00,VWS V14.01,2013-04-22 15:23:00,
2013-04-22 11:24:00,49.6,23.1,30.67,SW,222,0.0,11.0,35,0.00,,SKC,0.00,VWS V14.01,2013-04-22 15:24:00,
2013-04-22 11:25:00,49.1,24.6,30.69,WSW,237,9.0,13.0,38,0.00,,SKC,0.00,VWS V14.01,2013-04-22 15:25:00,
2013-04-22 11:27:00,49.9,23.4,30.67,South,178,5.0,8.0,35,0.00,,SKC,0.00,VWS V14.01,2013-04-22 15:27:00,
2013-04-22 11:29:00,49.8,21.9,30.67,SSW,208,6.0,17.0,33,0.00,,SKC,0.00,VWS V14.01,2013-04-22 15:29:00,
2013-04-22 11:30:00,49.8,23.3,30.67,SSW,206,5.0,17.0,35,0.00,,SKC,0.00,VWS V14.01,2013-04-22 15:30:00,
2013-04-22 11:32:00,49.5,22.3,30.67,SW,222,2.0,13.0,34,0.00,,SKC,0.00,VWS V14.01,2013-04-22 15:32:00,
2013-04-22 11:34:00,49.5,23.0,30.67,South,172,3.0,13.0,35,0.00,,SKC,0.00,VWS V14.01,2013-04-22 15:34:00,
2013-04-22 11:35:00,49.4,22.2,30.67,WSW,256,2.0,14.0,34,0.00,,SKC,0.00,VWS V14.01,2013-04-22 15:35:00,
2013-04-22 11:39:00,49.2,22.7,30.67,South,179,3.0,14.0,35,0.00,,SKC,0.00,VWS V14.01,2013-04-22 15:39:00,
2013-04-22 11:40:00,49.2,24.1,30.67,SSW,205,3.0,14.0,37,0.00,,SKC,0.00,VWS V14.01,2013-04-22 15:40:00,
2013-04-22 11:44:00,49.8,24.6,30.67,SSW,195,10.0,16.0,37,0.00,,SKC,0.00,VWS V14.01,2013-04-22 15:44:00,
2013-04-22 11:45:00,49.5,24.3,30.66,SW,215,6.0,16.0,37,0.00,,SKC,0.00,VWS V14.01,2013-04-22 15:45:00,
2013-04-22 11:46:00,49.2,24.1,30.66,South,191,4.0,8.0,37,0.00,,SKC,0.00,VWS V14.01,2013-04-22 15:46:00,
2013-04-22 11:49:00,49.4,24.9,30.66,SW,234,7.0,9.0,38,0.00,,SKC,0.00,VWS V14.01,2013-04-22 15:49:00,
2013-04-22 11:50:00,49.4,24.9,30.66,WSW,248,5.0,5.0,38,0.00,,SKC,0.00,VWS V14.01,2013-04-22 15:50:00,
2013-04-22 11:51:00,49.4,24.9,30.66,WSW,251,3.0,8.0,38,0.00,,SKC,0.00,VWS V14.01,2013-04-22 15:51:00,
2013-04-22 11:54:00,49.2,24.1,30.66,South,182,7.0,15.0,37,0.00,,SKC,0.00,VWS V14.01,2013-04-22 15:54:00,
2013-04-22 11:55:00,49.2,24.7,30.66,SSW,195,0.0,7.0,38,0.00,,SKC,0.00,VWS V14.01,2013-04-22 15:55:00,
2013-04-22 11:56:00,49.2,24.7,30.66,SSW,213,7.0,7.0,38,0.00,,SKC,0.00,VWS V14.01,2013-04-22 15:56:00,
2013-04-22 12:00:00,49.4,24.2,30.66,SSW,200,5.0,7.0,37,0.00,,SKC,0.00,VWS V14.01,2013-04-22 16:00:00,
2013-04-22 12:01:00,49.4,24.2,30.66,WSW,241,5.0,11.0,37,0.00,,SKC,0.00,VWS V14.01,2013-04-22 16:01:00,
2013-04-22 12:02:00,49.2,24.1,30.66,South,175,7.0,11.0,37,0.00,,SKC,0.00,VWS V14.01,2013-04-22 16:02:00,
2013-04-22 12:05:00,49.8,24.6,30.66,SSE,168,8.0,8.0,37,0.00,,SKC,0.00,VWS V14.01,2013-04-22 16:05:00,
2013-04-22 12:06:00,49.8,24.6,30.66,SSW,212,0.0,8.0,37,0.00,,SKC,0.00,VWS V14.01,2013-04-22 16:06:00,
2013-04-22 12:07:00,49.9,24.7,30.66,SW,226,0.0,8.0,37,0.00,,SKC,0.00,VWS V14.01,2013-04-22 16:07:00,
2013-04-22 12:10:00,49.1,25.2,30.67,SW,222,3.0,10.0,39,0.00,,SKC,0.00,VWS V14.01,2013-04-22 16:10:00,
2013-04-22 12:11:00,50.1,23.5,30.66,SW,222,0.0,6.0,35,0.00,,SKC,0.00,VWS V14.01,2013-04-22 16:11:00,
2013-04-22 12:12:00,50.1,24.2,30.66,SW,236,3.0,6.0,36,0.00,,SKC,0.00,VWS V14.01,2013-04-22 16:12:00,
2013-04-22 12:15:00,49.4,23.6,30.67,WSW,246,7.0,14.0,36,0.00,,SKC,0.00,VWS V14.01,2013-04-22 16:15:00,
2013-04-22 12:16:00,49.9,23.4,30.65,WSW,257,10.0,12.0,35,0.00,,SKC,0.00,VWS V14.01,2013-04-22 16:16:00,
2013-04-22 12:17:00,49.9,23.4,30.65,SSW,213,1.0,12.0,35,0.00,,SKC,0.00,VWS V14.01,2013-04-22 16:17:00,
2013-04-22 12:20:00,49.4,24.2,30.67,SSW,203,3.0,14.0,37,0.00,,SKC,0.00,VWS V14.01,2013-04-22 16:20:00,
2013-04-22 12:21:00,50.5,23.9,30.65,South,178,1.0,6.0,35,0.00,,SKC,0.00,VWS V14.01,2013-04-22 16:21:00,
2013-04-22 12:22:00,50.5,23.9,30.65,WSW,239,3.0,6.0,35,0.00,,SKC,0.00,VWS V14.01,2013-04-22 16:22:00,
2013-04-22 12:25:00,49.9,23.4,30.67,South,176,8.0,11.0,35,0.00,,SKC,0.00,VWS V14.01,2013-04-22 16:25:00,
2013-04-22 12:26:00,50.4,23.8,30.65,SW,229,0.0,8.0,35,0.00,,SKC,0.00,VWS V14.01,2013-04-22 16:26:00,
2013-04-22 12:27:00,50.5,23.9,30.65,SW,236,0.0,8.0,35,0.00,,SKC,0.00,VWS V14.01,2013-04-22 16:27:00,
2013-04-22 12:28:00,50.5,24.6,30.65,SSW,200,6.0,8.0,36,0.00,,SKC,0.00,VWS V14.01,2013-04-22 16:28:00,
2013-04-22 12:30:00,49.8,23.3,30.67,South,182,5.0,17.0,35,0.00,,SKC,0.00,VWS V14.01,2013-04-22 16:30:00,
2013-04-22 12:32:00,50.1,24.9,30.64,WSW,247,0.0,10.0,37,0.00,,SKC,0.00,VWS V14.01,2013-04-22 16:32:00,
2013-04-22 12:33:00,49.9,24.7,30.64,SW,234,6.0,10.0,37,0.00,,SKC,0.00,VWS V14.01,2013-04-22 16:33:00,
2013-04-22 12:35:00,49.4,22.2,30.67,SSW,200,0.0,14.0,34,0.00,,SKC,0.00,VWS V14.01,2013-04-22 16:35:00,
2013-04-22 12:37:00,50.1,26.1,30.64,WSW,243,7.0,13.0,39,0.00,,SKC,0.00,VWS V14.01,2013-04-22 16:37:00,
2013-04-22 12:38:00,49.9,24.7,30.64,WSW,246,11.0,13.0,37,0.00,,SKC,0.00,VWS V14.01,2013-04-22 16:38:00,
2013-04-22 12:39:00,49.9,25.3,30.64,West,261,7.0,13.0,38,0.00,,SKC,0.00,VWS V14.01,2013-04-22 16:39:00,
2013-04-22 12:40:00,49.2,24.1,30.67,SSW,205,3.0,14.0,37,0.00,,SKC,0.00,VWS V14.01,2013-04-22 16:40:00,
2013-04-22 12:42:00,49.5,25.6,30.64,SW,229,1.0,9.0,39,0.00,,SKC,0.00,VWS V14.01,2013-04-22 16:42:00,
2013-04-22 12:43:00,49.5,26.2,30.64,South,178,6.0,11.0,40,0.00,,SKC,0.00,VWS V14.01,2013-04-22 16:43:00,
2013-04-22 12:44:00,49.5,26.8,30.64,South,178,4.0,11.0,41,0.00,,SKC,0.00,VWS V14.01,2013-04-22 16:44:00,
2013-04-22 12:45:00,49.5,24.3,30.66,SW,215,6.0,16.0,37,0.00,,SKC,0.00,VWS V14.01,2013-04-22 16:45:00,
2013-04-22 12:48:00,48.9,26.8,30.65,SSW,198,0.0,12.0,42,0.00,,SKC,0.00,VWS V14.01,2013-04-22 16:48:00,
2013-04-22 12:49:00,49.1,27.6,30.65,WSW,239,1.0,12.0,43,0.00,,SKC,0.00,VWS V14.01,2013-04-22 16:49:00,
2013-04-22 12:50:00,49.4,24.9,30.66,WSW,243,5.0,12.0,38,0.00,,SKC,0.00,VWS V14.01,2013-04-22 16:50:00,
2013-04-22 12:53:00,49.6,27.5,30.65,SW,236,3.0,10.0,42,0.00,,SKC,0.00,VWS V14.01,2013-04-22 16:53:00,
2013-04-22 12:54:00,49.6,27.5,30.65,WSW,248,8.0,16.0,42,0.00,,SKC,0.00,VWS V14.01,2013-04-22 16:54:00,
2013-04-22 12:55:00,49.8,27.6,30.65,SW,222,1.0,4.0,42,0.00,,SKC,0.00,VWS V14.01,2013-04-22 16:55:00,
2013-04-22 12:59:00,49.8,28.2,30.65,SSW,195,9.0,13.0,43,0.00,,SKC,0.00,VWS V14.01,2013-04-22 16:59:00,
2013-04-22 13:00:00,49.8,27.6,30.65,SSW,212,4.0,13.0,42,0.00,,SKC,0.00,VWS V14.01,2013-04-22 17:00:00,
2013-04-22 13:04:00,49.9,27.1,30.65,SW,234,7.0,15.0,41,0.00,,SKC,0.00,VWS V14.01,2013-04-22 17:04:00,
2013-04-22 13:05:00,50.1,26.7,30.65,SW,216,6.0,15.0,40,0.00,,SKC,0.00,VWS V14.01,2013-04-22 17:05:00,
2013-04-22 13:06:00,50.2,27.4,30.65,SW,219,5.0,11.0,41,0.00,,SKC,0.00,VWS V14.01,2013-04-22 17:06:00,
2013-04-22 13:09:00,49.9,26.6,30.65,WSW,247,0.0,14.0,40,0.00,,SKC,0.00,VWS V14.01,2013-04-22 17:09:00,
2013-04-22 13:10:00,49.9,26.6,30.65,SW,222,3.0,3.0,40,0.00,,SKC,0.00,VWS V14.01,2013-04-22 17:10:00,
2013-04-22 13:11:00,49.9,27.7,30.65,WSW,243,5.0,13.0,42,0.00,,SKC,0.00,VWS V14.01,2013-04-22 17:11:00,
2013-04-22 13:15:00,49.8,25.9,30.64,SSE,158,12.0,17.0,39,0.00,,SKC,0.00,VWS V14.01,2013-04-22 17:15:00,
2013-04-22 13:16:00,49.6,26.3,30.64,SSE,158,5.0,12.0,40,0.00,,SKC,0.00,VWS V14.01,2013-04-22 17:16:00,
2013-04-22 13:17:00,49.6,26.3,30.64,SSW,212,0.0,12.0,40,0.00,,SKC,0.00,VWS V14.01,2013-04-22 17:17:00,
2013-04-22 13:20:00,49.5,27.4,30.64,SW,220,11.0,12.0,42,0.00,,SKC,0.00,VWS V14.01,2013-04-22 17:20:00,
2013-04-22 13:21:00,49.6,26.9,30.64,SSW,209,5.0,9.0,41,0.00,,SKC,0.00,VWS V14.01,2013-04-22 17:21:00,
2013-04-22 13:22:00,49.6,26.9,30.64,SSW,213,0.0,9.0,41,0.00,,SKC,0.00,VWS V14.01,2013-04-22 17:22:00,
2013-04-22 13:25:00,50.4,27.0,30.64,SSW,193,7.0,7.0,40,0.00,,SKC,0.00,VWS V14.01,2013-04-22 17:25:00,
2013-04-22 13:26:00,50.4,27.6,30.64,SSW,192,0.0,7.0,41,0.00,,SKC,0.00,VWS V14.01,2013-04-22 17:26:00,
2013-04-22 13:27:00,50.4,27.0,30.64,SSW,205,0.0,7.0,40,0.00,,SKC,0.00,VWS V14.01,2013-04-22 17:27:00,
2013-04-22 13:30:00,50.5,26.5,30.63,South,172,6.0,10.0,39,0.00,,SKC,0.00,VWS V14.01,2013-04-22 17:30:00,
2013-04-22 13:31:00,50.5,26.5,30.63,South,189,5.0,10.0,39,0.00,,SKC,0.00,VWS V14.01,2013-04-22 17:31:00,
2013-04-22 13:32:00,50.5,25.9,30.63,WSW,239,12.0,14.0,38,0.00,,SKC,0.00,VWS V14.01,2013-04-22 17:32:00,
2013-04-22 13:33:00,50.5,24.6,30.63,WSW,237,2.0,18.0,36,0.00,,SKC,0.00,VWS V14.01,2013-04-22 17:33:00,
2013-04-22 13:35:00,49.8,25.2,30.64,South,181,3.0,12.0,38,0.00,,SKC,0.00,VWS V14.01,2013-04-22 17:35:00,
2013-04-22 13:36:00,50.5,25.9,30.63,SW,232,0.0,6.0,38,0.00,,SKC,0.00,VWS V14.01,2013-04-22 17:36:00,
2013-04-22 13:37:00,50.7,26.0,30.63,SSE,158,12.0,13.0,38,0.00,,SKC,0.00,VWS V14.01,2013-04-22 17:37:00,
2013-04-22 13:38:00,50.5,25.2,30.63,WSW,253,7.0,13.0,37,0.00,,SKC,0.00,VWS V14.01,2013-04-22 17:38:00,
2013-04-22 13:39:00,50.5,25.2,30.63,SW,216,0.0,13.0,37,0.00,,SKC,0.00,VWS V14.01,2013-04-22 17:39:00,
2013-04-22 13:40:00,49.6,25.0,30.64,WSW,247,8.0,13.0,38,0.00,,SKC,0.00,VWS V14.01,2013-04-22 17:40:00,
2013-04-22 13:41:00,50.5,25.2,30.63,SSW,196,5.0,7.0,37,0.00,,SKC,0.00,VWS V14.01,2013-04-22 17:41:00,
2013-04-22 13:42:00,50.5,25.9,30.63,South,186,2.0,7.0,38,0.00,,SKC,0.00,VWS V14.01,2013-04-22 17:42:00,
2013-04-22 13:43:00,50.5,25.9,30.63,SSE,161,11.0,11.0,38,0.00,,SKC,0.00,VWS V14.01,2013-04-22 17:43:00,
2013-04-22 13:44:00,50.4,25.8,30.63,SSE,165,5.0,11.0,38,0.00,,SKC,0.00,VWS V14.01,2013-04-22 17:44:00,
2013-04-22 13:45:00,49.4,26.1,30.65,South,186,7.0,11.0,40,0.00,,SKC,0.00,VWS V14.01,2013-04-22 17:45:00,
2013-04-22 13:46:00,50.4,26.4,30.63,South,176,2.0,6.0,39,0.00,,SKC,0.00,VWS V14.01,2013-04-22 17:46:00,
2013-04-22 13:47:00,50.4,25.1,30.63,SSW,198,2.0,8.0,37,0.00,,SKC,0.00,VWS V14.01,2013-04-22 17:47:00,
2013-04-22 13:48:00,50.4,25.8,30.63,SSE,160,7.0,8.0,38,0.00,,SKC,0.00,VWS V14.01,2013-04-22 17:48:00,
2013-04-22 13:49:00,50.2,25.6,30.63,South,179,1.0,8.0,38,0.00,,SKC,0.00,VWS V14.01,2013-04-22 17:49:00,
2013-04-22 13:50:00,49.4,27.9,30.65,SW,227,7.0,12.0,43,0.00,,SKC,0.00,VWS V14.01,2013-04-22 17:50:00,
2013-04-22 13:53:00,50.1,24.9,30.63,SW,216,5.0,9.0,37,0.00,,SKC,0.00,VWS V14.01,2013-04-22 17:53:00,
2013-04-22 13:54:00,49.8,23.9,30.63,SW,227,1.0,10.0,36,0.00,,SKC,0.00,VWS V14.01,2013-04-22 17:54:00,
2013-04-22 13:55:00,49.8,24.6,30.63,SSW,202,3.0,10.0,37,0.00,,SKC,0.00,VWS V14.01,2013-04-22 17:55:00,
2013-04-22 13:58:00,49.6,23.8,30.63,SW,229,4.0,16.0,36,0.00,,SKC,0.00,VWS V14.01,2013-04-22 17:58:00,
2013-04-22 13:59:00,49.6,23.1,30.62,South,191,4.0,16.0,35,0.00,,SKC,0.00,VWS V14.01,2013-04-22 17:59:00,
2013-04-22 14:00:00,49.6,23.1,30.62,SW,222,7.0,16.0,35,0.00,,SKC,0.00,VWS V14.01,2013-04-22 18:00:00,
2013-04-22 14:03:00,49.5,22.3,30.62,WSW,241,11.0,18.0,34,0.00,,SKC,0.00,VWS V14.01,2013-04-22 18:03:00,
2013-04-22 14:04:00,49.4,22.9,30.62,SW,220,7.0,18.0,35,0.00,,SKC,0.00,VWS V14.01,2013-04-22 18:04:00,
2013-04-22 14:05:00,49.4,22.2,30.62,SSW,193,2.0,18.0,34,0.00,,SKC,0.00,VWS V14.01,2013-04-22 18:05:00,
2013-04-22 14:06:00,49.4,21.5,30.62,SSE,167,13.0,13.0,33,0.00,,SKC,0.00,VWS V14.01,2013-04-22 18:06:00,
2013-04-22 14:08:00,49.2,22.0,30.62,SSW,210,3.0,13.0,34,0.00,,SKC,0.00,VWS V14.01,2013-04-22 18:08:00,
2013-04-22 14:09:00,49.2,22.0,30.62,SSW,198,3.0,13.0,34,0.00,,SKC,0.00,VWS V14.01,2013-04-22 18:09:00,
2013-04-22 14:10:00,49.8,26.5,30.65,WSW,246,3.0,14.0,40,0.00,,SKC,0.00,VWS V14.01,2013-04-22 18:10:00,
2013-04-22 14:11:00,49.5,22.3,30.62,SW,219,7.0,18.0,34,0.00,,SKC,0.00,VWS V14.01,2013-04-22 18:11:00,
2013-04-22 14:12:00,49.5,21.6,30.62,WSW,241,12.0,18.0,33,0.00,,SKC,0.00,VWS V14.01,2013-04-22 18:12:00,
2013-04-22 14:14:00,49.6,22.4,30.62,SSW,200,3.0,18.0,34,0.00,,SKC,0.00,VWS V14.01,2013-04-22 18:14:00,
2013-04-22 14:15:00,49.6,22.4,30.62,SSW,199,3.0,18.0,34,0.00,,SKC,0.00,VWS V14.01,2013-04-22 18:15:00,
2013-04-22 14:16:00,49.8,22.6,30.62,SW,230,4.0,4.0,34,0.00,,SKC,0.00,VWS V14.01,2013-04-22 18:16:00,
2013-04-22 14:17:00,49.9,22.0,30.62,SSW,198,4.0,7.0,33,0.00,,SKC,0.00,VWS V14.01,2013-04-22 18:17:00,
2013-04-22 14:19:00,50.2,22.9,30.62,SSW,208,7.0,10.0,34,0.00,,SKC,0.00,VWS V14.01,2013-04-22 18:19:00,
2013-04-22 14:20:00,50.4,23.1,30.62,SW,232,11.0,11.0,34,0.00,,SKC,0.00,VWS V14.01,2013-04-22 18:20:00,
2013-04-22 14:21:00,50.5,23.2,30.62,SSW,198,4.0,13.0,34,0.00,,SKC,0.00,VWS V14.01,2013-04-22 18:21:00,
2013-04-22 14:22:00,50.5,23.2,30.62,SW,216,2.0,13.0,34,0.00,,SKC,0.00,VWS V14.01,2013-04-22 18:22:00,
2013-04-22 14:24:00,50.5,22.5,30.62,SW,217,8.0,13.0,33,0.00,,SKC,0.00,VWS V14.01,2013-04-22 18:24:00,
2013-04-22 14:25:00,50.5,22.5,30.62,SSW,206,5.0,13.0,33,0.00,,SKC,0.00,VWS V14.01,2013-04-22 18:25:00,
2013-04-22 14:26:00,50.4,21.7,30.62,SW,230,5.0,6.0,32,0.00,,SKC,0.00,VWS V14.01,2013-04-22 18:26:00,
2013-04-22 14:27:00,50.2,22.9,30.62,SSW,210,1.0,7.0,34,0.00,,SKC,0.00,VWS V14.01,2013-04-22 18:27:00,
2013-04-22 14:30:00,50.2,21.5,30.62,SW,226,10.0,19.0,32,0.00,,SKC,0.00,VWS V14.01,2013-04-22 18:30:00,
2013-04-22 14:31:00,49.9,21.2,30.62,South,186,5.0,14.0,32,0.00,,SKC,0.00,VWS V14.01,2013-04-22 18:31:00,
2013-04-22 14:32:00,49.8,21.1,30.62,SW,234,9.0,14.0,32,0.00,,SKC,0.00,VWS V14.01,2013-04-22 18:32:00,
2013-04-22 14:33:00,49.6,22.4,30.62,SW,223,6.0,14.0,34,0.00,,SKC,0.00,VWS V14.01,2013-04-22 18:33:00,
2013-04-22 14:35:00,49.5,23.0,30.62,WSW,240,5.0,14.0,35,0.00,,SKC,0.00,VWS V14.01,2013-04-22 18:35:00,
2013-04-22 14:36:00,49.4,22.9,30.62,SW,224,12.0,17.0,35,0.00,,SKC,0.00,VWS V14.01,2013-04-22 18:36:00,
2013-04-22 14:37:00,49.4,22.9,30.62,SSW,208,11.0,19.0,35,0.00,,SKC,0.00,VWS V14.01,2013-04-22 18:37:00,
2013-04-22 14:38:00,49.4,23.6,30.62,SW,229,13.0,19.0,36,0.00,,SKC,0.00,VWS V14.01,2013-04-22 18:38:00,
2013-04-22 14:40:00,49.5,24.3,30.62,SW,229,7.0,7.0,37,0.00,,SKC,0.00,VWS V14.01,2013-04-22 18:40:00,
2013-04-22 14:41:00,49.8,25.2,30.62,SW,222,5.0,11.0,38,0.00,,SKC,0.00,VWS V14.01,2013-04-22 18:41:00,
2013-04-22 14:43:00,50.1,24.9,30.62,SSE,167,2.0,11.0,37,0.00,,SKC,0.00,VWS V14.01,2013-04-22 18:43:00,
2013-04-22 14:44:00,50.2,25.0,30.62,South,181,1.0,11.0,37,0.00,,SKC,0.00,VWS V14.01,2013-04-22 18:44:00,
2013-04-22 14:45:00,50.2,25.0,30.60,SW,216,2.0,3.0,37,0.00,,SKC,0.00,VWS V14.01,2013-04-22 18:45:00,
2013-04-22 14:46:00,50.2,25.0,30.60,WSW,250,9.0,13.0,37,0.00,,SKC,0.00,VWS V14.01,2013-04-22 18:46:00,
2013-04-22 14:47:00,49.9,24.7,30.60,SW,222,18.0,20.0,37,0.00,,SKC,0.00,VWS V14.01,2013-04-22 18:47:00,
2013-04-22 14:49:00,49.6,25.0,30.60,WSW,246,8.0,20.0,38,0.00,,SKC,0.00,VWS V14.01,2013-04-22 18:49:00,
2013-04-22 14:50:00,49.8,25.2,30.60,SW,229,6.0,6.0,38,0.00,,SKC,0.00,VWS V14.01,2013-04-22 18:50:00,
2013-04-22 14:51:00,49.8,24.6,30.60,SW,215,6.0,7.0,37,0.00,,SKC,0.00,VWS V14.01,2013-04-22 18:51:00,
2013-04-22 14:53:00,49.8,24.6,30.60,SW,222,8.0,14.0,37,0.00,,SKC,0.00,VWS V14.01,2013-04-22 18:53:00,
2013-04-22 14:55:00,49.6,25.0,30.60,SW,217,1.0,19.0,38,0.00,,SKC,0.00,VWS V14.01,2013-04-22 18:55:00,
2013-04-22 14:56:00,49.5,25.0,30.60,SW,224,6.0,18.0,38,0.00,,SKC,0.00,VWS V14.01,2013-04-22 18:56:00,
2013-04-22 14:57:00,49.5,25.6,30.60,SW,226,2.0,18.0,39,0.00,,SKC,0.00,VWS V14.01,2013-04-22 18:57:00,
2013-04-22 14:58:00,49.5,26.2,30.60,South,172,12.0,18.0,40,0.00,,SKC,0.00,VWS V14.01,2013-04-22 18:58:00,
2013-04-22 15:00:00,49.6,26.9,30.60,South,182,2.0,3.0,41,0.00,,SKC,0.00,VWS V14.01,2013-04-22 19:00:00,
2013-04-22 15:02:00,49.8,27.1,30.60,SW,219,7.0,7.0,41,0.00,,SKC,0.00,VWS V14.01,2013-04-22 19:02:00,
2013-04-22 15:03:00,49.9,26.6,30.60,SW,216,12.0,14.0,40,0.00,,SKC,0.00,VWS V14.01,2013-04-22 19:03:00,
2013-04-22 15:05:00,49.4,22.2,30.62,SSW,192,2.0,18.0,34,0.00,,SKC,0.00,VWS V14.01,2013-04-22 19:05:00,
2013-04-22 15:06:00,49.5,26.8,30.60,SW,224,9.0,17.0,41,0.00,,SKC,0.00,VWS V14.01,2013-04-22 19:06:00,
2013-04-22 15:07:00,49.4,27.3,30.60,SW,215,5.0,17.0,42,0.00,,SKC,0.00,VWS V14.01,2013-04-22 19:07:00,
2013-04-22 15:08:00,49.4,27.3,30.60,SW,222,2.0,17.0,42,0.00,,SKC,0.00,VWS V14.01,2013-04-22 19:08:00,
2013-04-22 15:10:00,49.4,22.2,30.62,SW,234,5.0,13.0,34,0.00,,SKC,0.00,VWS V14.01,2013-04-22 19:10:00,
2013-04-22 15:11:00,49.2,26.5,30.60,WSW,250,7.0,13.0,41,0.00,,SKC,0.00,VWS V14.01,2013-04-22 19:11:00,
2013-04-22 15:12:00,49.4,27.3,30.60,WSW,247,6.0,13.0,42,0.00,,SKC,0.00,VWS V14.01,2013-04-22 19:12:00,
2013-04-22 15:13:00,49.2,27.1,30.60,WSW,247,8.0,13.0,42,0.00,,SKC,0.00,VWS V14.01,2013-04-22 19:13:00,
2013-04-22 15:14:00,49.2,27.1,30.60,SW,233,7.0,13.0,42,0.00,,SKC,0.00,VWS V14.01,2013-04-22 19:14:00,
2013-04-22 15:15:00,49.6,22.4,30.62,SSW,199,3.0,18.0,34,0.00,,SKC,0.00,VWS V14.01,2013-04-22 19:15:00,
2013-04-22 15:16:00,49.4,27.9,30.59,SW,216,6.0,13.0,43,0.00,,SKC,0.00,VWS V14.01,2013-04-22 19:16:00,
2013-04-22 15:18:00,49.4,27.9,30.59,SW,232,3.0,13.0,43,0.00,,SKC,0.00,VWS V14.01,2013-04-22 19:18:00,
2013-04-22 15:19:00,49.4,27.9,30.59,SSW,195,0.0,13.0,43,0.00,,SKC,0.00,VWS V14.01,2013-04-22 19:19:00,
2013-04-22 15:20:00,49.4,28.4,30.59,South,172,3.0,13.0,44,0.00,,SKC,0.00,VWS V14.01,2013-04-22 19:20:00,
2013-04-22 15:22:00,49.5,28.5,30.59,South,179,0.0,8.0,44,0.00,,SKC,0.00,VWS V14.01,2013-04-22 19:22:00,
2013-04-22 15:23:00,49.6,28.6,30.59,SW,219,8.0,9.0,44,0.00,,SKC,0.00,VWS V14.01,2013-04-22 19:23:00,
2013-04-22 15:24:00,49.5,28.5,30.59,SSW,196,2.0,9.0,44,0.00,,SKC,0.00,VWS V14.01,2013-04-22 19:24:00,
2013-04-22 15:25:00,49.5,29.6,30.59,WSW,257,2.0,9.0,46,0.00,,SKC,0.00,VWS V14.01,2013-04-22 19:25:00,
2013-04-22 15:27:00,49.5,29.1,30.59,South,186,0.0,13.0,45,0.00,,SKC,0.00,VWS V14.01,2013-04-22 19:27:00,
2013-04-22 15:28:00,49.5,29.1,30.59,SW,223,16.0,16.0,45,0.00,,SKC,0.00,VWS V14.01,2013-04-22 19:28:00,
2013-04-22 15:29:00,49.4,29.0,30.60,SSW,202,3.0,16.0,45,0.00,,SKC,0.00,VWS V14.01,2013-04-22 19:29:00,
2013-04-22 15:30:00,50.1,21.4,30.62,SW,219,13.0,19.0,32,0.00,,SKC,0.00,VWS V14.01,2013-04-22 19:30:00,
2013-04-22 15:31:00,49.2,28.8,30.60,SSW,209,11.0,11.0,45,0.00,,SKC,0.00,VWS V14.01,2013-04-22 19:31:00,
2013-04-22 15:33:00,48.9,28.5,30.60,SW,233,3.0,11.0,45,0.00,,SKC,0.00,VWS V14.01,2013-04-22 19:33:00,
2013-04-22 15:34:00,49.1,28.7,30.60,WSW,237,7.0,11.0,45,0.00,,SKC,0.00,VWS V14.01,2013-04-22 19:34:00,
2013-04-22 15:35:00,49.5,23.0,30.62,SW,233,8.0,14.0,35,0.00,,SKC,0.00,VWS V14.01,2013-04-22 19:35:00,
2013-04-22 15:37:00,49.5,30.1,30.60,SW,224,17.0,17.0,47,0.00,,SKC,0.00,VWS V14.01,2013-04-22 19:37:00,
2013-04-22 15:38:00,49.9,30.0,30.60,SSW,200,5.0,17.0,46,0.00,,SKC,0.00,VWS V14.01,2013-04-22 19:38:00,
2013-04-22 15:39:00,50.1,30.1,30.60,SSW,198,3.0,17.0,46,0.00,,SKC,0.00,VWS V14.01,2013-04-22 19:39:00,
2013-04-22 15:40:00,49.5,24.3,30.62,SW,227,5.0,19.0,37,0.00,,SKC,0.00,VWS V14.01,2013-04-22 19:40:00,
2013-04-22 15:42:00,50.1,30.1,30.60,SSW,212,0.0,8.0,46,0.00,,SKC,0.00,VWS V14.01,2013-04-22 19:42:00,
2013-04-22 15:43:00,50.1,29.6,30.60,SSW,200,1.0,10.0,45,0.00,,SKC,0.00,VWS V14.01,2013-04-22 19:43:00,
2013-04-22 15:44:00,50.1,29.6,30.60,SSW,196,2.0,10.0,45,0.00,,SKC,0.00,VWS V14.01,2013-04-22 19:44:00,
2013-04-22 15:45:00,50.1,29.6,30.60,SW,232,5.0,7.0,45,0.00,,SKC,0.00,VWS V14.01,2013-04-22 19:45:00,
2013-04-22 15:48:00,49.4,28.4,30.60,SW,232,3.0,12.0,44,0.00,,SKC,0.00,VWS V14.01,2013-04-22 19:48:00,
2013-04-22 15:49:00,49.4,28.4,30.60,SW,220,10.0,12.0,44,0.00,,SKC,0.00,VWS V14.01,2013-04-22 19:49:00,
2013-04-22 15:50:00,48.9,29.6,30.60,WSW,240,6.0,10.0,47,0.00,,SKC,0.00,VWS V14.01,2013-04-22 19:50:00,
2013-04-22 15:54:00,48.6,30.3,30.60,SSW,208,0.0,10.0,49,0.00,,SKC,0.00,VWS V14.01,2013-04-22 19:54:00,
2013-04-22 15:55:00,49.6,25.0,30.60,SW,217,1.0,19.0,38,0.00,,SKC,0.00,VWS V14.01,2013-04-22 19:55:00,
2013-04-22 15:57:00,48.9,31.6,30.60,South,184,3.0,7.0,51,0.00,,SKC,0.00,VWS V14.01,2013-04-22 19:57:00,
2013-04-22 15:59:00,48.9,32.1,30.60,SSW,193,3.0,7.0,52,0.00,,SKC,0.00,VWS V14.01,2013-04-22 19:59:00,
2013-04-22 16:00:00,48.8,32.0,30.60,SW,234,2.0,7.0,52,0.00,,SKC,0.00,VWS V14.01,2013-04-22 20:00:00,
2013-04-22 16:02:00,48.3,32.0,30.60,SSW,199,1.0,8.0,53,0.00,,SKC,0.00,VWS V14.01,2013-04-22 20:02:00,
2013-04-22 16:04:00,48.2,32.3,30.60,SSW,193,2.0,8.0,54,0.00,,SKC,0.00,VWS V14.01,2013-04-22 20:04:00,
2013-04-22 16:05:00,48.2,32.3,30.60,SW,219,2.0,8.0,54,0.00,,SKC,0.00,VWS V14.01,2013-04-22 20:05:00,
2013-04-22 16:07:00,48.2,31.9,30.60,SSW,208,0.0,11.0,53,0.00,,SKC,0.00,VWS V14.01,2013-04-22 20:07:00,
2013-04-22 16:09:00,48.0,32.2,30.60,SSW,202,2.0,11.0,54,0.00,,SKC,0.00,VWS V14.01,2013-04-22 20:09:00,
2013-04-22 16:10:00,48.0,32.2,30.60,SSW,195,6.0,12.0,54,0.00,,SKC,0.00,VWS V14.01,2013-04-22 20:10:00,
2013-04-22 16:11:00,48.0,32.2,30.60,SW,217,7.0,12.0,54,0.00,,SKC,0.00,VWS V14.01,2013-04-22 20:11:00,
2013-04-22 16:13:00,47.9,32.1,30.60,SW,224,3.0,12.0,54,0.00,,SKC,0.00,VWS V14.01,2013-04-22 20:13:00,
2013-04-22 16:14:00,47.7,31.9,30.60,SSE,165,6.0,12.0,54,0.00,,SKC,0.00,VWS V14.01,2013-04-22 20:14:00,
2013-04-22 16:15:00,47.7,32.3,30.60,SW,216,7.0,7.0,55,0.00,,SKC,0.00,VWS V14.01,2013-04-22 20:15:00,
2013-04-22 16:16:00,47.7,32.3,30.60,SSW,210,2.0,8.0,55,0.00,,SKC,0.00,VWS V14.01,2013-04-22 20:16:00,
2013-04-22 16:19:00,47.9,32.1,30.60,SW,226,1.0,11.0,54,0.00,,SKC,0.00,VWS V14.01,2013-04-22 20:19:00,
2013-04-22 16:20:00,49.4,28.4,30.59,SSE,168,1.0,13.0,44,0.00,,SKC,0.00,VWS V14.01,2013-04-22 20:20:00,
2013-04-22 16:21:00,47.9,32.1,30.60,SW,219,10.0,11.0,54,0.00,,SKC,0.00,VWS V14.01,2013-04-22 20:21:00,
2013-04-22 16:22:00,48.0,32.2,30.60,SW,222,6.0,11.0,54,0.00,,SKC,0.00,VWS V14.01,2013-04-22 20:22:00,
2013-04-22 16:24:00,48.5,32.6,30.60,WSW,244,6.0,11.0,54,0.00,,SKC,0.00,VWS V14.01,2013-04-22 20:24:00,
2013-04-22 16:25:00,48.8,32.4,30.60,SSW,203,1.0,11.0,53,0.00,,SKC,0.00,VWS V14.01,2013-04-22 20:25:00,
2013-04-22 16:26:00,48.9,32.5,30.60,SW,217,2.0,7.0,53,0.00,,SKC,0.00,VWS V14.01,2013-04-22 20:26:00,
2013-04-22 16:27:00,48.9,32.5,30.60,SSE,168,3.0,7.0,53,0.00,,SKC,0.00,VWS V14.01,2013-04-22 20:27:00,
2013-04-22 16:28:00,48.9,32.5,30.60,SSW,202,2.0,11.0,53,0.00,,SKC,0.00,VWS V14.01,2013-04-22 20:28:00,
2013-04-22 16:30:00,48.8,33.4,30.59,SSE,167,0.0,11.0,55,0.00,,SKC,0.00,VWS V14.01,2013-04-22 20:30:00,
2013-04-22 16:32:00,48.5,33.1,30.59,SSW,196,3.0,6.0,55,0.00,,SKC,0.00,VWS V14.01,2013-04-22 20:32:00,
2013-04-22 16:34:00,47.9,32.5,30.59,SSW,209,4.0,9.0,55,0.00,,SKC,0.00,VWS V14.01,2013-04-22 20:34:00,
2013-04-22 16:35:00,47.7,32.3,30.59,SSW,210,6.0,13.0,55,0.00,,SKC,0.00,VWS V14.01,2013-04-22 20:35:00,
2013-04-22 16:37:00,47.3,32.4,30.59,SSE,167,11.0,11.0,56,0.00,,SKC,0.00,VWS V14.01,2013-04-22 20:37:00,
2013-04-22 16:38:00,47.1,32.2,30.59,SSW,213,12.0,13.0,56,0.00,,SKC,0.00,VWS V14.01,2013-04-22 20:38:00,
2013-04-22 16:40:00,47.0,32.1,30.59,SSW,202,0.0,13.0,56,0.00,,SKC,0.00,VWS V14.01,2013-04-22 20:40:00,
2013-04-22 16:41:00,47.0,32.6,30.59,SW,215,0.0,10.0,57,0.00,,SKC,0.00,VWS V14.01,2013-04-22 20:41:00,
2013-04-22 16:43:00,47.1,32.7,30.59,WSW,248,2.0,10.0,57,0.00,,SKC,0.00,VWS V14.01,2013-04-22 20:43:00,
2013-04-22 16:45:00,47.1,32.7,30.59,SSW,199,1.0,2.0,57,0.00,,SKC,0.00,VWS V14.01,2013-04-22 20:45:00,
2013-04-22 16:46:00,47.1,32.7,30.59,SW,226,7.0,7.0,57,0.00,,SKC,0.00,VWS V14.01,2013-04-22 20:46:00,
2013-04-22 16:48:00,47.1,32.2,30.59,WSW,239,5.0,12.0,56,0.00,,SKC,0.00,VWS V14.01,2013-04-22 20:48:00,
2013-04-22 16:49:00,47.1,32.2,30.59,SW,222,5.0,12.0,56,0.00,,SKC,0.00,VWS V14.01,2013-04-22 20:49:00,
2013-04-22 16:50:00,47.3,32.8,30.59,SW,222,0.0,0.0,57,0.00,,SKC,0.00,VWS V14.01,2013-04-22 20:50:00,
2013-04-22 16:51:00,47.4,33.0,30.59,SSW,209,4.0,4.0,57,0.00,,SKC,0.00,VWS V14.01,2013-04-22 20:51:00,
2013-04-22 16:52:00,47.4,33.0,30.59,South,181,2.0,4.0,57,0.00,,SKC,0.00,VWS V14.01,2013-04-22 20:52:00,
2013-04-22 16:53:00,47.7,32.8,30.59,South,178,1.0,5.0,56,0.00,,SKC,0.00,VWS V14.01,2013-04-22 20:53:00,
2013-04-22 16:54:00,47.9,33.0,30.59,South,182,1.0,7.0,56,0.00,,SKC,0.00,VWS V14.01,2013-04-22 20:54:00,
2013-04-22 16:55:00,48.0,32.6,30.59,SSW,200,1.0,7.0,55,0.00,,SKC,0.00,VWS V14.01,2013-04-22 20:55:00,
2013-04-22 16:56:00,48.0,31.7,30.59,South,175,3.0,7.0,53,0.00,,SKC,0.00,VWS V14.01,2013-04-22 20:56:00,
2013-04-22 16:57:00,48.0,31.7,30.59,SW,217,2.0,7.0,53,0.00,,SKC,0.00,VWS V14.01,2013-04-22 20:57:00,
2013-04-22 16:58:00,48.0,31.2,30.59,SSW,193,2.0,7.0,52,0.00,,SKC,0.00,VWS V14.01,2013-04-22 20:58:00,
2013-04-22 17:00:00,47.9,31.6,30.59,WSW,247,5.0,10.0,53,0.00,,SKC,0.00,VWS V14.01,2013-04-22 21:00:00,
2013-04-22 17:02:00,47.7,31.4,30.59,SW,230,12.0,12.0,53,0.00,,SKC,0.00,VWS V14.01,2013-04-22 21:02:00,
2013-04-22 17:04:00,47.4,31.6,30.59,WSW,240,2.0,13.0,54,0.00,,SKC,0.00,VWS V14.01,2013-04-22 21:04:00,
2013-04-22 17:05:00,47.4,31.6,30.59,SW,220,3.0,6.0,54,0.00,,SKC,0.00,VWS V14.01,2013-04-22 21:05:00,
2013-04-22 17:06:00,47.4,31.6,30.59,SW,226,4.0,6.0,54,0.00,,SKC,0.00,VWS V14.01,2013-04-22 21:06:00,
2013-04-22 17:07:00,47.3,31.0,30.59,SW,233,10.0,16.0,53,0.00,,SKC,0.00,VWS V14.01,2013-04-22 21:07:00,
2013-04-22 17:08:00,47.1,31.3,30.59,SSW,193,0.0,16.0,54,0.00,,SKC,0.00,VWS V14.01,2013-04-22 21:08:00,
2013-04-22 17:10:00,47.3,32.0,30.59,SW,226,7.0,16.0,55,0.00,,SKC,0.00,VWS V14.01,2013-04-22 21:10:00,
2013-04-22 17:11:00,47.3,32.0,30.59,SSW,196,6.0,12.0,55,0.00,,SKC,0.00,VWS V14.01,2013-04-22 21:11:00,
2013-04-22 17:12:00,47.3,32.4,30.59,SW,224,2.0,12.0,56,0.00,,SKC,0.00,VWS V14.01,2013-04-22 21:12:00,
2013-04-22 17:13:00,47.3,32.4,30.59,SW,215,6.0,12.0,56,0.00,,SKC,0.00,VWS V14.01,2013-04-22 21:13:00,
2013-04-22 17:15:00,47.1,32.7,30.59,SSW,193,2.0,2.0,57,0.00,,SKC,0.00,VWS V14.01,2013-04-22 21:15:00,
2013-04-22 17:16:00,47.1,32.7,30.59,SSE,158,2.0,5.0,57,0.00,,SKC,0.00,VWS V14.01,2013-04-22 21:16:00,
2013-04-22 17:17:00,47.1,32.7,30.59,SW,216,5.0,5.0,57,0.00,,SKC,0.00,VWS V14.01,2013-04-22 21:17:00,
2013-04-22 17:18:00,47.0,33.0,30.59,SW,234,5.0,5.0,58,0.00,,SKC,0.00,VWS V14.01,2013-04-22 21:18:00,
2013-04-22 17:20:00,46.7,32.7,30.59,SSW,213,5.0,7.0,58,0.00,,SKC,0.00,VWS V14.01,2013-04-22 21:20:00,
2013-04-22 17:22:00,46.5,33.0,30.59,SW,223,5.0,7.0,59,0.00,,SKC,0.00,VWS V14.01,2013-04-22 21:22:00,
2013-04-22 17:23:00,46.4,33.3,30.59,SW,222,2.0,8.0,60,0.00,,SKC,0.00,VWS V14.01,2013-04-22 21:23:00,
2013-04-22 17:24:00,46.4,33.3,30.59,SSW,195,0.0,8.0,60,0.00,,SKC,0.00,VWS V14.01,2013-04-22 21:24:00,
2013-04-22 17:25:00,48.8,32.4,30.60,SSW,203,1.0,11.0,53,0.00,,SKC,0.00,VWS V14.01,2013-04-22 21:25:00,
2013-04-22 17:26:00,46.2,33.1,30.59,SSW,196,14.0,14.0,60,0.00,,SKC,0.00,VWS V14.01,2013-04-22 21:26:00,
2013-04-22 17:27:00,46.2,33.1,30.59,SW,219,7.0,14.0,60,0.00,,SKC,0.00,VWS V14.01,2013-04-22 21:27:00,
2013-04-22 17:28:00,46.1,32.6,30.59,SSW,213,1.0,14.0,59,0.00,,SKC,0.00,VWS V14.01,2013-04-22 21:28:00,
2013-04-22 17:29:00,46.1,32.6,30.59,SW,226,3.0,14.0,59,0.00,,SKC,0.00,VWS V14.01,2013-04-22 21:29:00,
2013-04-22 17:30:00,48.8,33.4,30.59,South,181,0.0,11.0,55,0.00,,SKC,0.00,VWS V14.01,2013-04-22 21:30:00,
2013-04-22 17:32:00,46.2,33.1,30.59,SW,224,1.0,3.0,60,0.00,,SKC,0.00,VWS V14.01,2013-04-22 21:32:00,
2013-04-22 17:33:00,46.2,33.1,30.59,WSW,240,2.0,6.0,60,0.00,,SKC,0.00,VWS V14.01,2013-04-22 21:33:00,
2013-04-22 17:34:00,46.2,32.7,30.59,SSW,206,0.0,8.0,59,0.00,,SKC,0.00,VWS V14.01,2013-04-22 21:34:00,
2013-04-22 17:35:00,46.2,32.7,30.59,SW,232,5.0,5.0,59,0.00,,SKC,0.00,VWS V14.01,2013-04-22 21:35:00,
2013-04-22 17:38:00,46.0,33.3,30.59,SW,227,3.0,11.0,61,0.00,,SKC,0.00,VWS V14.01,2013-04-22 21:38:00,
2013-04-22 17:39:00,46.0,33.3,30.59,SSE,158,2.0,11.0,61,0.00,,SKC,0.00,VWS V14.01,2013-04-22 21:39:00,
2013-04-22 17:40:00,45.8,33.1,30.59,SSW,192,6.0,6.0,61,0.00,,SKC,0.00,VWS V14.01,2013-04-22 21:40:00,
2013-04-22 17:44:00,45.7,33.4,30.59,SW,220,3.0,6.0,62,0.00,,SKC,0.00,VWS V14.01,2013-04-22 21:44:00,
2013-04-22 17:45:00,45.7,33.8,30.59,South,182,5.0,6.0,63,0.00,,SKC,0.00,VWS V14.01,2013-04-22 21:45:00,
2013-04-22 17:46:00,45.5,33.2,30.59,SSW,209,1.0,7.0,62,0.00,,SKC,0.00,VWS V14.01,2013-04-22 21:46:00,
2013-04-22 17:49:00,45.5,32.8,30.59,WSW,240,15.0,16.0,61,0.00,,SKC,0.00,VWS V14.01,2013-04-22 21:49:00,
2013-04-22 17:50:00,45.4,32.8,30.59,SSW,212,1.0,16.0,61,0.00,,SKC,0.00,VWS V14.01,2013-04-22 21:50:00,
2013-04-22 17:51:00,45.2,32.2,30.59,SSW,210,1.0,8.0,60,0.00,,SKC,0.00,VWS V14.01,2013-04-22 21:51:00,
2013-04-22 17:55:00,45.4,32.3,30.59,SW,223,2.0,8.0,60,0.00,,SKC,0.00,VWS V14.01,2013-04-22 21:55:00,
2013-04-22 17:56:00,45.4,32.8,30.59,SW,229,2.0,3.0,61,0.00,,SKC,0.00,VWS V14.01,2013-04-22 21:56:00,
2013-04-22 18:00:00,45.7,33.4,30.59,SSW,212,2.0,8.0,62,0.00,,SKC,0.00,VWS V14.01,2013-04-22 22:00:00,
2013-04-22 18:01:00,45.5,33.2,30.59,SSW,193,1.0,12.0,62,0.00,,SKC,0.00,VWS V14.01,2013-04-22 22:01:00,
2013-04-22 18:02:00,45.5,33.2,30.59,WSW,246,2.0,12.0,62,0.00,,SKC,0.00,VWS V14.01,2013-04-22 22:02:00,
2013-04-22 18:05:00,45.2,33.4,30.59,South,182,8.0,12.0,63,0.00,,SKC,0.00,VWS V14.01,2013-04-22 22:05:00,
2013-04-22 18:06:00,45.1,33.3,30.59,South,184,4.0,8.0,63,0.00,,SKC,0.00,VWS V14.01,2013-04-22 22:06:00,
2013-04-22 18:07:00,44.9,33.1,30.59,SSW,202,2.0,8.0,63,0.00,,SKC,0.00,VWS V14.01,2013-04-22 22:07:00,
2013-04-22 18:08:00,44.9,33.1,30.59,South,185,5.0,8.0,63,0.00,,SKC,0.00,VWS V14.01,2013-04-22 22:08:00,
2013-04-22 18:10:00,44.8,32.6,30.59,SSW,198,1.0,7.0,62,0.00,,SKC,0.00,VWS V14.01,2013-04-22 22:10:00,
2013-04-22 18:11:00,44.8,32.6,30.59,SW,230,2.0,7.0,62,0.00,,SKC,0.00,VWS V14.01,2013-04-22 22:11:00,
2013-04-22 18:12:00,44.8,32.2,30.59,SW,233,3.0,10.0,61,0.00,,SKC,0.00,VWS V14.01,2013-04-22 22:12:00,
2013-04-22 18:13:00,44.8,32.2,30.59,South,175,2.0,10.0,61,0.00,,SKC,0.00,VWS V14.01,2013-04-22 22:13:00,
2013-04-22 18:15:00,47.1,32.7,30.59,South,186,0.0,12.0,57,0.00,,SKC,0.00,VWS V14.01,2013-04-22 22:15:00,
2013-04-22 18:16:00,44.8,32.2,30.59,SSW,212,2.0,5.0,61,0.00,,SKC,0.00,VWS V14.01,2013-04-22 22:16:00,
2013-04-22 18:17:00,44.8,32.2,30.59,SW,234,1.0,5.0,61,0.00,,SKC,0.00,VWS V14.01,2013-04-22 22:17:00,
2013-04-22 18:19:00,44.9,32.3,30.59,SW,229,2.0,5.0,61,0.00,,SKC,0.00,VWS V14.01,2013-04-22 22:19:00,
2013-04-22 18:20:00,46.7,32.7,30.59,SW,216,7.0,7.0,58,0.00,,SKC,0.00,VWS V14.01,2013-04-22 22:20:00,
2013-04-22 18:21:00,45.1,32.9,30.59,SSW,213,0.0,4.0,62,0.00,,SKC,0.00,VWS V14.01,2013-04-22 22:21:00,
2013-04-22 18:22:00,45.1,32.9,30.59,SW,220,4.0,6.0,62,0.00,,SKC,0.00,VWS V14.01,2013-04-22 22:22:00,
2013-04-22 18:23:00,45.1,32.9,30.59,SSW,193,9.0,13.0,62,0.00,,SKC,0.00,VWS V14.01,2013-04-22 22:23:00,
2013-04-22 18:24:00,45.1,32.5,30.59,SW,230,5.0,13.0,61,0.00,,SKC,0.00,VWS V14.01,2013-04-22 22:24:00,
2013-04-22 18:25:00,46.2,33.1,30.59,SW,236,0.0,10.0,60,0.00,,SKC,0.00,VWS V14.01,2013-04-22 22:25:00,
2013-04-22 18:27:00,44.9,31.9,30.59,SW,219,2.0,11.0,60,0.00,,SKC,0.00,VWS V14.01,2013-04-22 22:27:00,
2013-04-22 18:28:00,44.9,31.9,30.59,SW,220,3.0,11.0,60,0.00,,SKC,0.00,VWS V14.01,2013-04-22 22:28:00,
2013-04-22 18:29:00,44.8,31.8,30.59,SW,232,0.0,11.0,60,0.00,,SKC,0.00,VWS V14.01,2013-04-22 22:29:00,
2013-04-22 18:30:00,46.1,33.0,30.59,SSW,200,2.0,14.0,60,0.00,,SKC,0.00,VWS V14.01,2013-04-22 22:30:00,
2013-04-22 18:32:00,44.8,31.8,30.59,SSW,210,0.0,3.0,60,0.00,,SKC,0.00,VWS V14.01,2013-04-22 22:32:00,
2013-04-22 18:33:00,44.8,31.8,30.59,WSW,239,3.0,6.0,60,0.00,,SKC,0.00,VWS V14.01,2013-04-22 22:33:00,
2013-04-22 18:34:00,44.8,31.8,30.59,SW,217,2.0,6.0,60,0.00,,SKC,0.00,VWS V14.01,2013-04-22 22:34:00,
2013-04-22 18:35:00,46.2,32.7,30.59,SW,232,5.0,8.0,59,0.00,,SKC,0.00,VWS V14.01,2013-04-22 22:35:00,
2013-04-22 18:37:00,44.6,31.6,30.59,West,271,3.0,7.0,60,0.00,,SKC,0.00,VWS V14.01,2013-04-22 22:37:00,
2013-04-22 18:38:00,44.6,31.6,30.59,SSW,213,3.0,7.0,60,0.00,,SKC,0.00,VWS V14.01,2013-04-22 22:38:00,
2013-04-22 18:39:00,44.6,31.6,30.59,SSW,205,3.0,7.0,60,0.00,,SKC,0.00,VWS V14.01,2013-04-22 22:39:00,
2013-04-22 18:40:00,45.8,33.1,30.59,WSW,247,3.0,11.0,61,0.00,,SKC,0.00,VWS V14.01,2013-04-22 22:40:00,
2013-04-22 18:43:00,44.3,31.7,30.59,WSW,244,6.0,8.0,61,0.00,,SKC,0.00,VWS V14.01,2013-04-22 22:43:00,
2013-04-22 18:44:00,44.3,31.7,30.58,SW,226,1.0,11.0,61,0.00,,SKC,0.00,VWS V14.01,2013-04-22 22:44:00,
2013-04-22 18:45:00,44.3,31.7,30.58,SW,226,2.0,11.0,61,0.00,,SKC,0.00,VWS V14.01,2013-04-22 22:45:00,
2013-04-22 18:48:00,44.3,32.1,30.58,SW,230,3.0,6.0,62,0.00,,SKC,0.00,VWS V14.01,2013-04-22 22:48:00,
2013-04-22 18:49:00,44.3,32.1,30.58,SW,232,7.0,14.0,62,0.00,,SKC,0.00,VWS V14.01,2013-04-22 22:49:00,
2013-04-22 18:50:00,44.3,32.1,30.58,SW,229,5.0,5.0,62,0.00,,SKC,0.00,VWS V14.01,2013-04-22 22:50:00,
2013-04-22 18:53:00,44.2,31.6,30.58,SW,234,0.0,8.0,61,0.00,,SKC,0.00,VWS V14.01,2013-04-22 22:53:00,
2013-04-22 18:54:00,44.2,31.6,30.58,SW,234,0.0,8.0,61,0.00,,SKC,0.00,VWS V14.01,2013-04-22 22:54:00,
2013-04-22 18:55:00,45.4,32.3,30.59,SW,223,2.0,8.0,60,0.00,,SKC,0.00,VWS V14.01,2013-04-22 22:55:00,
2013-04-22 18:56:00,44.1,31.5,30.58,SW,223,1.0,10.0,61,0.00,,SKC,0.00,VWS V14.01,2013-04-22 22:56:00,
2013-04-22 18:57:00,44.1,31.5,30.58,SW,215,4.0,10.0,61,0.00,,SKC,0.00,VWS V14.01,2013-04-22 22:57:00,
2013-04-22 18:58:00,43.9,31.3,30.58,SSW,213,0.0,10.0,61,0.00,,SKC,0.00,VWS V14.01,2013-04-22 22:58:00,
2013-04-22 18:59:00,43.9,31.7,30.58,SW,229,3.0,10.0,62,0.00,,SKC,0.00,VWS V14.01,2013-04-22 22:59:00,
2013-04-22 19:00:00,45.7,33.4,30.59,SSW,212,2.0,8.0,62,0.00,,SKC,0.00,VWS V14.01,2013-04-22 23:00:00,
2013-04-22 19:01:00,43.8,31.6,30.58,SW,234,3.0,7.0,62,0.00,,SKC,0.00,VWS V14.01,2013-04-22 23:01:00,
2013-04-22 19:03:00,43.8,32.0,30.58,SW,227,5.0,11.0,63,0.00,,SKC,0.00,VWS V14.01,2013-04-22 23:03:00,
2013-04-22 19:05:00,43.8,32.0,30.58,South,172,7.0,11.0,63,0.00,,SKC,0.00,VWS V14.01,2013-04-22 23:05:00,
2013-04-22 19:07:00,43.8,30.8,30.58,SSW,208,0.0,8.0,60,0.00,,SKC,0.00,VWS V14.01,2013-04-22 23:07:00,
2013-04-22 19:08:00,43.6,30.6,30.58,South,191,0.0,8.0,60,0.00,,SKC,0.00,VWS V14.01,2013-04-22 23:08:00,
2013-04-22 19:10:00,43.6,31.0,30.58,SW,230,5.0,8.0,61,0.00,,SKC,0.00,VWS V14.01,2013-04-22 23:10:00,
2013-04-22 19:11:00,43.6,31.0,30.58,SW,223,0.0,4.0,61,0.00,,SKC,0.00,VWS V14.01,2013-04-22 23:11:00,
2013-04-22 19:12:00,43.6,31.0,30.58,SW,223,1.0,5.0,61,0.00,,SKC,0.00,VWS V14.01,2013-04-22 23:12:00,
2013-04-22 19:14:00,43.6,30.6,30.58,SSW,193,2.0,5.0,60,0.00,,SKC,0.00,VWS V14.01,2013-04-22 23:14:00,
2013-04-22 19:15:00,43.5,30.5,30.58,SSW,192,1.0,6.0,60,0.00,,SKC,0.00,VWS V14.01,2013-04-22 23:15:00,
2013-04-22 19:16:00,43.5,30.5,30.58,SSW,209,1.0,3.0,60,0.00,,SKC,0.00,VWS V14.01,2013-04-22 23:16:00,
2013-04-22 19:18:00,43.3,30.8,30.58,SSW,192,2.0,7.0,61,0.00,,SKC,0.00,VWS V14.01,2013-04-22 23:18:00,
2013-04-22 19:19:00,43.3,30.8,30.58,SSW,193,3.0,7.0,61,0.00,,SKC,0.00,VWS V14.01,2013-04-22 23:19:00,
2013-04-22 19:20:00,43.3,30.8,30.58,SSW,206,4.0,4.0,61,0.00,,SKC,0.00,VWS V14.01,2013-04-22 23:20:00,
2013-04-22 19:21:00,43.3,30.8,30.58,SSW,198,0.0,4.0,61,0.00,,SKC,0.00,VWS V14.01,2013-04-22 23:21:00,
2013-04-22 19:23:00,43.2,30.7,30.58,SSW,196,1.0,7.0,61,0.00,,SKC,0.00,VWS V14.01,2013-04-22 23:23:00,
2013-04-22 19:25:00,43.2,31.1,30.58,SSW,193,0.0,7.0,62,0.00,,SKC,0.00,VWS V14.01,2013-04-22 23:25:00,
2013-04-22 19:26:00,43.2,31.1,30.58,SSW,205,0.0,0.0,62,0.00,,SKC,0.00,VWS V14.01,2013-04-22 23:26:00,
2013-04-22 19:28:00,43.2,31.1,30.58,SW,227,3.0,6.0,62,0.00,,SKC,0.00,VWS V14.01,2013-04-22 23:28:00,
2013-04-22 19:29:00,43.1,31.0,30.58,SSW,205,1.0,6.0,62,0.00,,SKC,0.00,VWS V14.01,2013-04-22 23:29:00,
2013-04-22 19:30:00,43.1,31.0,30.58,SW,223,3.0,3.0,62,0.00,,SKC,0.00,VWS V14.01,2013-04-22 23:30:00,
2013-04-22 19:31:00,43.1,31.0,30.58,SW,222,6.0,6.0,62,0.00,,SKC,0.00,VWS V14.01,2013-04-22 23:31:00,
2013-04-22 19:33:00,43.1,31.0,30.58,SW,234,1.0,7.0,62,0.00,,SKC,0.00,VWS V14.01,2013-04-22 23:33:00,
2013-04-22 19:35:00,43.1,31.0,30.58,South,176,3.0,7.0,62,0.00,,SKC,0.00,VWS V14.01,2013-04-22 23:35:00,
2013-04-22 19:37:00,43.1,31.0,30.58,South,176,0.0,2.0,62,0.00,,SKC,0.00,VWS V14.01,2013-04-22 23:37:00,
2013-04-22 19:39:00,43.1,31.0,30.58,SSW,203,8.0,8.0,62,0.00,,SKC,0.00,VWS V14.01,2013-04-22 23:39:00,
2013-04-22 19:40:00,42.9,30.8,30.58,South,186,8.0,8.0,62,0.00,,SKC,0.00,VWS V14.01,2013-04-22 23:40:00,
2013-04-22 19:42:00,42.9,31.2,30.58,SSW,192,0.0,8.0,63,0.00,,SKC,0.00,VWS V14.01,2013-04-22 23:42:00,
2013-04-22 19:43:00,42.8,31.1,30.58,SW,233,2.0,8.0,63,0.00,,SKC,0.00,VWS V14.01,2013-04-22 23:43:00,
2013-04-22 19:44:00,42.8,31.1,30.58,SSW,205,0.0,13.0,63,0.00,,SKC,0.00,VWS V14.01,2013-04-22 23:44:00,
2013-04-22 19:45:00,42.6,30.9,30.58,SW,217,7.0,13.0,63,0.00,,SKC,0.00,VWS V14.01,2013-04-22 23:45:00,
2013-04-22 19:46:00,42.6,30.9,30.58,South,174,0.0,11.0,63,0.00,,SKC,0.00,VWS V14.01,2013-04-22 23:46:00,
2013-04-22 19:47:00,42.5,30.8,30.58,South,174,6.0,11.0,63,0.00,,SKC,0.00,VWS V14.01,2013-04-22 23:47:00,
2013-04-22 19:48:00,42.5,30.8,30.58,South,191,2.0,11.0,63,0.00,,SKC,0.00,VWS V14.01,2013-04-22 23:48:00,
2013-04-22 19:49:00,42.5,30.8,30.58,SSE,167,0.0,11.0,63,0.00,,SKC,0.00,VWS V14.01,2013-04-22 23:49:00,
2013-04-22 19:50:00,42.3,31.0,30.58,SSE,167,0.0,2.0,64,0.00,,SKC,0.00,VWS V14.01,2013-04-22 23:50:00,
2013-04-22 19:51:00,42.3,31.0,30.58,South,181,4.0,4.0,64,0.00,,SKC,0.00,VWS V14.01,2013-04-22 23:51:00,
2013-04-22 19:53:00,42.3,31.0,30.58,South,179,0.0,7.0,64,0.00,,SKC,0.00,VWS V14.01,2013-04-22 23:53:00,
2013-04-22 19:54:00,42.3,31.0,30.58,WSW,243,0.0,7.0,64,0.00,,SKC,0.00,VWS V14.01,2013-04-22 23:54:00,
2013-04-22 19:55:00,44.1,31.5,30.58,SW,224,8.0,8.0,61,0.00,,SKC,0.00,VWS V14.01,2013-04-22 23:55:00,
2013-04-22 19:56:00,42.2,30.9,30.58,South,184,7.0,7.0,64,0.00,,SKC,0.00,VWS V14.01,2013-04-22 23:56:00,
2013-04-22 19:59:00,42.2,30.9,30.58,South,191,0.0,7.0,64,0.00,,SKC,0.00,VWS V14.01,2013-04-22 23:59:00,
2013-04-22 20:00:00,43.9,31.7,30.58,WSW,239,7.0,10.0,62,0.00,,SKC,0.00,VWS V14.01,2013-04-23 00:00:00,
2013-04-22 20:01:00,42.1,30.8,30.58,South,188,3.0,6.0,64,0.00,,SKC,0.00,VWS V14.01,2013-04-23 00:01:00,
2013-04-22 20:02:00,42.1,30.8,30.58,South,172,2.0,6.0,64,0.00,,SKC,0.00,VWS V14.01,2013-04-23 00:02:00,
2013-04-22 20:04:00,41.9,30.6,30.58,SSW,208,0.0,8.0,64,0.00,,SKC,0.00,VWS V14.01,2013-04-23 00:04:00,
2013-04-22 20:05:00,41.9,30.6,30.58,SSE,157,3.0,8.0,64,0.00,,SKC,0.00,VWS V14.01,2013-04-23 00:05:00,
2013-04-22 20:06:00,41.9,30.6,30.58,SSW,212,0.0,7.0,64,0.00,,SKC,0.00,VWS V14.01,2013-04-23 00:06:00,
2013-04-22 20:07:00,41.9,30.6,30.58,South,172,2.0,7.0,64,0.00,,SKC,0.00,VWS V14.01,2013-04-23 00:07:00,
2013-04-22 20:09:00,41.8,30.5,30.58,South,175,3.0,9.0,64,0.00,,SKC,0.00,VWS V14.01,2013-04-23 00:09:00,
2013-04-22 20:10:00,41.8,30.1,30.58,South,179,2.0,9.0,63,0.00,,SKC,0.00,VWS V14.01,2013-04-23 00:10:00,
2013-04-22 20:11:00,41.6,30.0,30.58,South,171,0.0,4.0,63,0.00,,SKC,0.00,VWS V14.01,2013-04-23 00:11:00,
2013-04-22 20:12:00,41.6,30.0,30.58,SSW,196,2.0,5.0,63,0.00,,SKC,0.00,VWS V14.01,2013-04-23 00:12:00,
2013-04-22 20:14:00,41.6,30.0,30.58,SSW,213,1.0,7.0,63,0.00,,SKC,0.00,VWS V14.01,2013-04-23 00:14:00,
2013-04-22 20:15:00,41.5,29.9,30.58,SW,216,5.0,7.0,63,0.00,,SKC,0.00,VWS V14.01,2013-04-23 00:15:00,
2013-04-22 20:16:00,41.5,29.9,30.58,South,182,1.0,5.0,63,0.00,,SKC,0.00,VWS V14.01,2013-04-23 00:16:00,
2013-04-22 20:17:00,41.5,29.9,30.58,South,186,0.0,7.0,63,0.00,,SKC,0.00,VWS V14.01,2013-04-23 00:17:00,
2013-04-22 20:19:00,41.5,29.9,30.58,South,186,0.0,7.0,63,0.00,,SKC,0.00,VWS V14.01,2013-04-23 00:19:00,
2013-04-22 20:20:00,41.5,29.9,30.58,South,186,0.0,0.0,63,0.00,,SKC,0.00,VWS V14.01,2013-04-23 00:20:00,
2013-04-22 20:21:00,41.3,29.7,30.58,SSW,199,3.0,3.0,63,0.00,,SKC,0.00,VWS V14.01,2013-04-23 00:21:00,
2013-04-22 20:22:00,41.3,29.7,30.58,South,189,2.0,6.0,63,0.00,,SKC,0.00,VWS V14.01,2013-04-23 00:22:00,
2013-04-22 20:23:00,41.3,29.7,30.58,SW,216,0.0,6.0,63,0.00,,SKC,0.00,VWS V14.01,2013-04-23 00:23:00,
2013-04-22 20:25:00,41.2,29.6,30.58,SSW,206,0.0,6.0,63,0.00,,SKC,0.00,VWS V14.01,2013-04-23 00:25:00,
2013-04-22 20:26:00,41.2,29.6,30.58,South,181,1.0,2.0,63,0.00,,SKC,0.00,VWS V14.01,2013-04-23 00:26:00,
2013-04-22 20:27:00,41.2,29.6,30.58,SW,234,6.0,6.0,63,0.00,,SKC,0.00,VWS V14.01,2013-04-23 00:27:00,
2013-04-22 20:28:00,41.2,29.6,30.58,SW,215,6.0,6.0,63,0.00,,SKC,0.00,VWS V14.01,2013-04-23 00:28:00,
2013-04-22 20:30:00,41.1,29.5,30.58,SW,232,0.0,8.0,63,0.00,,SKC,0.00,VWS V14.01,2013-04-23 00:30:00,
2013-04-22 20:31:00,41.1,29.5,30.58,SSW,210,0.0,8.0,63,0.00,,SKC,0.00,VWS V14.01,2013-04-23 00:31:00,
2013-04-22 20:32:00,41.1,29.5,30.58,SW,226,1.0,8.0,63,0.00,,SKC,0.00,VWS V14.01,2013-04-23 00:32:00,
2013-04-22 20:33:00,41.1,29.5,30.58,SSW,203,0.0,8.0,63,0.00,,SKC,0.00,VWS V14.01,2013-04-23 00:33:00,
2013-04-22 20:35:00,40.9,29.3,30.58,SW,216,2.0,6.0,63,0.00,,SKC,0.00,VWS V14.01,2013-04-23 00:35:00,
2013-04-22 20:36:00,40.9,29.3,30.58,South,186,3.0,7.0,63,0.00,,SKC,0.00,VWS V14.01,2013-04-23 00:36:00,
2013-04-22 20:37:00,40.9,29.3,30.58,SW,219,3.0,7.0,63,0.00,,SKC,0.00,VWS V14.01,2013-04-23 00:37:00,
2013-04-22 20:38:00,40.8,29.2,30.58,SW,233,3.0,10.0,63,0.00,,SKC,0.00,VWS V14.01,2013-04-23 00:38:00,
2013-04-22 20:40:00,42.9,30.8,30.58,SSW,195,6.0,8.0,62,0.00,,SKC,0.00,VWS V14.01,2013-04-23 00:40:00,
2013-04-22 20:41:00,40.8,29.6,30.58,SSW,209,1.0,5.0,64,0.00,,SKC,0.00,VWS V14.01,2013-04-23 00:41:00,
2013-04-22 20:42:00,40.8,29.6,30.58,SSW,199,1.0,5.0,64,0.00,,SKC,0.00,VWS V14.01,2013-04-23 00:42:00,
2013-04-22 20:43:00,40.8,29.6,30.58,SSW,202,2.0,5.0,64,0.00,,SKC,0.00,VWS V14.01,2013-04-23 00:43:00,
2013-04-22 20:44:00,40.8,29.6,30.58,WSW,243,3.0,5.0,64,0.00,,SKC,0.00,VWS V14.01,2013-04-23 00:44:00,
2013-04-22 20:45:00,42.6,30.9,30.58,South,179,6.0,13.0,63,0.00,,SKC,0.00,VWS V14.01,2013-04-23 00:45:00,
2013-04-22 20:46:00,40.6,29.4,30.58,SSE,157,4.0,5.0,64,0.00,,SKC,0.00,VWS V14.01,2013-04-23 00:46:00,
2013-04-22 20:47:00,40.6,29.8,30.58,SSE,164,0.0,5.0,65,0.00,,SKC,0.00,VWS V14.01,2013-04-23 00:47:00,
2013-04-22 20:48:00,40.6,29.8,30.58,SSE,160,3.0,5.0,65,0.00,,SKC,0.00,VWS V14.01,2013-04-23 00:48:00,
2013-04-22 20:49:00,40.6,29.8,30.58,SW,233,2.0,5.0,65,0.00,,SKC,0.00,VWS V14.01,2013-04-23 00:49:00,
2013-04-22 20:50:00,40.6,29.8,30.58,SW,220,2.0,6.0,65,0.00,,SKC,0.00,VWS V14.01,2013-04-23 00:50:00,
2013-04-22 20:51:00,40.5,29.7,30.58,SW,232,1.0,2.0,65,0.00,,SKC,0.00,VWS V14.01,2013-04-23 00:51:00,
2013-04-22 20:52:00,40.5,29.7,30.58,SW,226,7.0,7.0,65,0.00,,SKC,0.00,VWS V14.01,2013-04-23 00:52:00,
2013-04-22 20:54:00,40.5,29.7,30.58,SSE,165,0.0,7.0,65,0.00,,SKC,0.00,VWS V14.01,2013-04-23 00:54:00,
2013-04-22 20:55:00,40.5,29.7,30.58,SW,217,1.0,7.0,65,0.00,,SKC,0.00,VWS V14.01,2013-04-23 00:55:00,
2013-04-22 20:56:00,40.5,29.7,30.58,SSW,203,0.0,5.0,65,0.00,,SKC,0.00,VWS V14.01,2013-04-23 00:56:00,
2013-04-22 20:57:00,40.5,29.7,30.58,South,182,0.0,5.0,65,0.00,,SKC,0.00,VWS V14.01,2013-04-23 00:57:00,
2013-04-22 20:59:00,40.5,29.7,30.58,SSW,193,0.0,5.0,65,0.00,,SKC,0.00,VWS V14.01,2013-04-23 00:59:00,
2013-04-22 21:00:00,40.5,30.0,30.58,SSW,203,0.0,0.0,66,0.00,,SKC,0.00,VWS V14.01,2013-04-23 01:00:00,
2013-04-22 21:02:00,40.5,30.0,30.58,SSW,203,0.0,0.0,66,0.00,,SKC,0.00,VWS V14.01,2013-04-23 01:02:00,
2013-04-22 21:03:00,40.3,29.9,30.58,SW,219,0.0,3.0,66,0.00,,SKC,0.00,VWS V14.01,2013-04-23 01:03:00,
2013-04-22 21:04:00,40.3,29.9,30.58,SW,219,0.0,3.0,66,0.00,,SKC,0.00,VWS V14.01,2013-04-23 01:04:00,
2013-04-22 21:05:00,40.3,29.9,30.58,WSW,237,0.0,3.0,66,0.00,,SKC,0.00,VWS V14.01,2013-04-23 01:05:00,
2013-04-22 21:07:00,40.3,29.9,30.58,SSW,202,4.0,6.0,66,0.00,,SKC,0.00,VWS V14.01,2013-04-23 01:07:00,
2013-04-22 21:08:00,40.2,29.8,30.58,South,186,6.0,6.0,66,0.00,,SKC,0.00,VWS V14.01,2013-04-23 01:08:00,
2013-04-22 21:10:00,40.2,29.8,30.58,SW,222,0.0,0.0,66,0.00,,SKC,0.00,VWS V14.01,2013-04-23 01:10:00,
2013-04-22 21:13:00,40.2,29.8,30.58,SSW,193,3.0,10.0,66,0.00,,SKC,0.00,VWS V14.01,2013-04-23 01:13:00,
2013-04-22 21:14:00,40.1,29.7,30.58,SSW,212,0.0,10.0,66,0.00,,SKC,0.00,VWS V14.01,2013-04-23 01:14:00,
2013-04-22 21:15:00,40.1,29.7,30.58,SSW,193,2.0,3.0,66,0.00,,SKC,0.00,VWS V14.01,2013-04-23 01:15:00,
2013-04-22 21:16:00,40.1,29.7,30.58,SSW,198,5.0,5.0,66,0.00,,SKC,0.00,VWS V14.01,2013-04-23 01:16:00,
2013-04-22 21:18:00,40.1,29.7,30.58,SW,232,0.0,6.0,66,0.00,,SKC,0.00,VWS V14.01,2013-04-23 01:18:00,
2013-04-22 21:20:00,40.1,29.7,30.58,SW,219,0.0,0.0,66,0.00,,SKC,0.00,VWS V14.01,2013-04-23 01:20:00,
2013-04-22 21:21:00,39.9,29.5,30.58,SW,219,0.0,0.0,66,0.00,,SKC,0.00,VWS V14.01,2013-04-23 01:21:00,
2013-04-22 21:24:00,39.9,29.9,30.58,South,191,0.0,2.0,67,0.00,,SKC,0.00,VWS V14.01,2013-04-23 01:24:00,
2013-04-22 21:25:00,39.9,29.9,30.58,SW,230,1.0,2.0,67,0.00,,SKC,0.00,VWS V14.01,2013-04-23 01:25:00,
2013-04-22 21:26:00,39.9,29.9,30.58,SSW,203,2.0,2.0,67,0.00,,SKC,0.00,VWS V14.01,2013-04-23 01:26:00,
2013-04-22 21:27:00,39.9,29.9,30.58,SW,232,0.0,2.0,67,0.00,,SKC,0.00,VWS V14.01,2013-04-23 01:27:00,
2013-04-22 21:29:00,39.8,29.8,30.58,SSW,210,1.0,8.0,67,0.00,,SKC,0.00,VWS V14.01,2013-04-23 01:29:00,
2013-04-22 21:30:00,41.1,29.5,30.58,SSW,209,2.0,6.0,63,0.00,,SKC,0.00,VWS V14.01,2013-04-23 01:30:00,
2013-04-22 21:31:00,39.8,29.8,30.58,SW,217,0.0,5.0,67,0.00,,SKC,0.00,VWS V14.01,2013-04-23 01:31:00,
2013-04-22 21:32:00,39.8,29.8,30.58,SSW,212,0.0,5.0,67,0.00,,SKC,0.00,VWS V14.01,2013-04-23 01:32:00,
2013-04-22 21:34:00,39.6,29.6,30.58,SW,216,0.0,7.0,67,0.00,,SKC,0.00,VWS V14.01,2013-04-23 01:34:00,
2013-04-22 21:35:00,40.9,28.9,30.58,SW,230,2.0,10.0,62,0.00,,SKC,0.00,VWS V14.01,2013-04-23 01:35:00,
2013-04-22 21:36:00,39.6,29.6,30.58,SSW,193,0.0,1.0,67,0.00,,SKC,0.00,VWS V14.01,2013-04-23 01:36:00,
2013-04-22 21:37:00,39.6,29.6,30.58,SSW,213,0.0,1.0,67,0.00,,SKC,0.00,VWS V14.01,2013-04-23 01:37:00,
2013-04-22 21:38:00,39.6,29.6,30.58,SW,215,0.0,1.0,67,0.00,,SKC,0.00,VWS V14.01,2013-04-23 01:38:00,
2013-04-22 21:39:00,39.6,29.6,30.58,South,186,1.0,6.0,67,0.00,,SKC,0.00,VWS V14.01,2013-04-23 01:39:00,
2013-04-22 21:40:00,40.8,29.2,30.58,SW,220,2.0,10.0,63,0.00,,SKC,0.00,VWS V14.01,2013-04-23 01:40:00,
2013-04-22 21:41:00,39.6,29.6,30.58,SSW,209,2.0,5.0,67,0.00,,SKC,0.00,VWS V14.01,2013-04-23 01:41:00,
2013-04-22 21:42:00,39.6,29.6,30.58,SW,230,0.0,5.0,67,0.00,,SKC,0.00,VWS V14.01,2013-04-23 01:42:00,
2013-04-22 21:43:00,39.6,29.6,30.58,SW,226,0.0,5.0,67,0.00,,SKC,0.00,VWS V14.01,2013-04-23 01:43:00,
2013-04-22 21:44:00,39.5,29.5,30.57,SSW,206,0.0,5.0,67,0.00,,SKC,0.00,VWS V14.01,2013-04-23 01:44:00,
2013-04-22 21:45:00,40.8,29.6,30.58,WSW,243,5.0,5.0,64,0.00,,SKC,0.00,VWS V14.01,2013-04-23 01:45:00,
2013-04-22 21:47:00,39.5,29.5,30.57,SSW,203,0.0,0.0,67,0.00,,SKC,0.00,VWS V14.01,2013-04-23 01:47:00,
2013-04-22 21:48:00,39.5,29.5,30.57,SSW,209,0.0,3.0,67,0.00,,SKC,0.00,VWS V14.01,2013-04-23 01:48:00,
2013-04-22 21:49:00,39.5,29.5,30.57,SW,217,0.0,3.0,67,0.00,,SKC,0.00,VWS V14.01,2013-04-23 01:49:00,
2013-04-22 21:50:00,40.6,29.8,30.58,SW,226,1.0,6.0,65,0.00,,SKC,0.00,VWS V14.01,2013-04-23 01:50:00,
2013-04-22 21:52:00,39.5,29.8,30.57,SSW,200,3.0,11.0,68,0.00,,SKC,0.00,VWS V14.01,2013-04-23 01:52:00,
2013-04-22 21:54:00,39.5,29.8,30.57,SW,215,0.0,11.0,68,0.00,,SKC,0.00,VWS V14.01,2013-04-23 01:54:00,
2013-04-22 21:55:00,39.5,29.8,30.57,SW,227,0.0,11.0,68,0.00,,SKC,0.00,VWS V14.01,2013-04-23 01:55:00,
2013-04-22 21:57:00,39.5,29.8,30.57,SSW,209,2.0,6.0,68,0.00,,SKC,0.00,VWS V14.01,2013-04-23 01:57:00,
2013-04-22 21:59:00,39.5,29.8,30.57,SSW,209,1.0,7.0,68,0.00,,SKC,0.00,VWS V14.01,2013-04-23 01:59:00,
2013-04-22 22:00:00,39.5,29.8,30.57,South,181,6.0,6.0,68,0.00,,SKC,0.00,VWS V14.01,2013-04-23 02:00:00,
2013-04-22 22:02:00,39.5,29.8,30.57,WSW,251,6.0,7.0,68,0.00,,SKC,0.00,VWS V14.01,2013-04-23 02:02:00,
2013-04-22 22:03:00,39.5,29.8,30.57,SW,223,1.0,7.0,68,0.00,,SKC,0.00,VWS V14.01,2013-04-23 02:03:00,
2013-04-22 22:04:00,39.5,29.8,30.57,South,189,1.0,7.0,68,0.00,,SKC,0.00,VWS V14.01,2013-04-23 02:04:00,
2013-04-22 22:05:00,39.5,29.8,30.57,SSW,200,5.0,7.0,68,0.00,,SKC,0.00,VWS V14.01,2013-04-23 02:05:00,
2013-04-22 22:07:00,39.5,29.8,30.57,South,191,0.0,7.0,68,0.00,,SKC,0.00,VWS V14.01,2013-04-23 02:07:00,
2013-04-22 22:08:00,39.5,29.8,30.57,SSW,192,0.0,7.0,68,0.00,,SKC,0.00,VWS V14.01,2013-04-23 02:08:00,
2013-04-22 22:09:00,39.5,29.8,30.57,SSW,199,0.0,7.0,68,0.00,,SKC,0.00,VWS V14.01,2013-04-23 02:09:00,
2013-04-22 22:10:00,39.5,29.8,30.57,SSW,200,0.0,7.0,68,0.00,,SKC,0.00,VWS V14.01,2013-04-23 02:10:00,
2013-04-22 22:13:00,39.5,29.8,30.57,SSW,210,0.0,9.0,68,0.00,,SKC,0.00,VWS V14.01,2013-04-23 02:13:00,
2013-04-22 22:15:00,39.3,29.6,30.57,SSE,155,5.0,9.0,68,0.00,,SKC,0.00,VWS V14.01,2013-04-23 02:15:00,
2013-04-22 22:18:00,39.3,30.0,30.57,South,185,2.0,4.0,69,0.00,,SKC,0.00,VWS V14.01,2013-04-23 02:18:00,
2013-04-22 22:20:00,39.3,30.0,30.57,SSW,199,5.0,7.0,69,0.00,,SKC,0.00,VWS V14.01,2013-04-23 02:20:00,
2013-04-22 22:21:00,39.3,30.0,30.57,SW,216,0.0,7.0,69,0.00,,SKC,0.00,VWS V14.01,2013-04-23 02:21:00,
2013-04-22 22:24:00,39.3,30.0,30.57,SW,222,0.0,7.0,69,0.00,,SKC,0.00,VWS V14.01,2013-04-23 02:24:00,
2013-04-22 22:25:00,39.9,29.9,30.58,SSW,196,2.0,2.0,67,0.00,,SKC,0.00,VWS V14.01,2013-04-23 02:25:00,
2013-04-22 22:26:00,39.3,30.0,30.57,SSW,202,6.0,6.0,69,0.00,,SKC,0.00,VWS V14.01,2013-04-23 02:26:00,
2013-04-22 22:29:00,39.3,30.0,30.57,SSW,198,0.0,6.0,69,0.00,,SKC,0.00,VWS V14.01,2013-04-23 02:29:00,
2013-04-22 22:30:00,39.3,30.0,30.56,South,172,0.0,0.0,69,0.00,,SKC,0.00,VWS V14.01,2013-04-23 02:30:00,
2013-04-22 22:31:00,39.3,30.0,30.56,SW,217,0.0,3.0,69,0.00,,SKC,0.00,VWS V14.01,2013-04-23 02:31:00,
2013-04-22 22:32:00,39.3,30.0,30.56,SW,227,0.0,3.0,69,0.00,,SKC,0.00,VWS V14.01,2013-04-23 02:32:00,
2013-04-22 22:34:00,39.3,30.0,30.56,South,189,5.0,11.0,69,0.00,,SKC,0.00,VWS V14.01,2013-04-23 02:34:00,
2013-04-22 22:35:00,39.3,30.0,30.56,SSW,198,1.0,3.0,69,0.00,,SKC,0.00,VWS V14.01,2013-04-23 02:35:00,
2013-04-22 22:36:00,39.3,30.0,30.56,SSW,210,0.0,3.0,69,0.00,,SKC,0.00,VWS V14.01,2013-04-23 02:36:00,
2013-04-22 22:39:00,39.3,30.0,30.56,SSW,209,0.0,6.0,69,0.00,,SKC,0.00,VWS V14.01,2013-04-23 02:39:00,
2013-04-22 22:40:00,39.3,30.0,30.56,SSW,195,2.0,2.0,69,0.00,,SKC,0.00,VWS V14.01,2013-04-23 02:40:00,
2013-04-22 22:41:00,39.3,30.0,30.56,SSW,203,0.0,2.0,69,0.00,,SKC,0.00,VWS V14.01,2013-04-23 02:41:00,
2013-04-22 22:42:00,39.3,30.0,30.56,South,189,0.0,5.0,69,0.00,,SKC,0.00,VWS V14.01,2013-04-23 02:42:00,
2013-04-22 22:45:00,39.5,30.2,30.55,SSW,203,0.0,5.0,69,0.00,,SKC,0.00,VWS V14.01,2013-04-23 02:45:00,
2013-04-22 22:46:00,39.3,30.0,30.55,South,182,6.0,9.0,69,0.00,,SKC,0.00,VWS V14.01,2013-04-23 02:46:00,
2013-04-22 22:47:00,39.3,30.0,30.55,SSW,205,5.0,9.0,69,0.00,,SKC,0.00,VWS V14.01,2013-04-23 02:47:00,
2013-04-22 22:50:00,39.3,30.0,30.55,South,184,2.0,9.0,69,0.00,,SKC,0.00,VWS V14.01,2013-04-23 02:50:00,
2013-04-22 22:51:00,39.3,30.0,30.55,South,185,0.0,2.0,69,0.00,,SKC,0.00,VWS V14.01,2013-04-23 02:51:00,
2013-04-22 22:52:00,39.3,30.0,30.55,SSW,206,6.0,7.0,69,0.00,,SKC,0.00,VWS V14.01,2013-04-23 02:52:00,
2013-04-22 22:55:00,39.3,30.0,30.55,SSW,210,2.0,7.0,69,0.00,,SKC,0.00,VWS V14.01,2013-04-23 02:55:00,
2013-04-22 22:57:00,39.3,30.0,30.55,South,172,2.0,5.0,69,0.00,,SKC,0.00,VWS V14.01,2013-04-23 02:57:00,
2013-04-22 22:58:00,39.3,30.0,30.55,South,172,2.0,5.0,69,0.00,,SKC,0.00,VWS V14.01,2013-04-23 02:58:00,
2013-04-22 23:00:00,39.3,30.0,30.55,SSW,205,2.0,3.0,69,0.00,,SKC,0.00,VWS V14.01,2013-04-23 03:00:00,
2013-04-22 23:02:00,39.3,30.0,30.55,South,189,0.0,6.0,69,0.00,,SKC,0.00,VWS V14.01,2013-04-23 03:02:00,
2013-04-22 23:03:00,39.3,30.0,30.55,South,189,0.0,6.0,69,0.00,,SKC,0.00,VWS V14.01,2013-04-23 03:03:00,
2013-04-22 23:04:00,39.3,30.4,30.55,South,182,2.0,6.0,70,0.00,,SKC,0.00,VWS V14.01,2013-04-23 03:04:00,
2013-04-22 23:05:00,39.3,30.4,30.55,SSW,206,0.0,1.0,70,0.00,,SKC,0.00,VWS V14.01,2013-04-23 03:05:00,
2013-04-22 23:07:00,39.3,30.4,30.55,South,184,0.0,8.0,70,0.00,,SKC,0.00,VWS V14.01,2013-04-23 03:07:00,
2013-04-22 23:08:00,39.3,30.4,30.55,SSW,193,0.0,8.0,70,0.00,,SKC,0.00,VWS V14.01,2013-04-23 03:08:00,
2013-04-22 23:09:00,39.3,30.4,30.55,South,175,5.0,8.0,70,0.00,,SKC,0.00,VWS V14.01,2013-04-23 03:09:00,
2013-04-22 23:10:00,39.5,29.8,30.57,SSW,196,0.0,7.0,68,0.00,,SKC,0.00,VWS V14.01,2013-04-23 03:10:00,
2013-04-22 23:11:00,39.3,30.4,30.55,South,176,10.0,10.0,70,0.00,,SKC,0.00,VWS V14.01,2013-04-23 03:11:00,
2013-04-22 23:13:00,39.3,30.4,30.55,South,185,1.0,10.0,70,0.00,,SKC,0.00,VWS V14.01,2013-04-23 03:13:00,
2013-04-22 23:15:00,39.3,30.4,30.55,SSW,199,2.0,10.0,70,0.00,,SKC,0.00,VWS V14.01,2013-04-23 03:15:00,
2013-04-22 23:16:00,39.3,30.4,30.55,SW,222,2.0,3.0,70,0.00,,SKC,0.00,VWS V14.01,2013-04-23 03:16:00,
2013-04-22 23:18:00,39.3,30.4,30.55,SSW,205,0.0,3.0,70,0.00,,SKC,0.00,VWS V14.01,2013-04-23 03:18:00,
2013-04-22 23:19:00,39.3,30.4,30.55,SW,216,0.0,3.0,70,0.00,,SKC,0.00,VWS V14.01,2013-04-23 03:19:00,
2013-04-22 23:20:00,39.3,30.4,30.55,SSW,212,2.0,3.0,70,0.00,,SKC,0.00,VWS V14.01,2013-04-23 03:20:00,
2013-04-22 23:21:00,39.3,30.4,30.55,WSW,237,0.0,5.0,70,0.00,,SKC,0.00,VWS V14.01,2013-04-23 03:21:00,
2013-04-22 23:23:00,39.3,30.4,30.55,SSW,195,0.0,5.0,70,0.00,,SKC,0.00,VWS V14.01,2013-04-23 03:23:00,
2013-04-22 23:24:00,39.3,30.4,30.55,SSW,213,0.0,5.0,70,0.00,,SKC,0.00,VWS V14.01,2013-04-23 03:24:00,
2013-04-22 23:25:00,39.3,30.4,30.55,South,188,2.0,5.0,70,0.00,,SKC,0.00,VWS V14.01,2013-04-23 03:25:00,
2013-04-22 23:26:00,39.3,30.4,30.55,SSW,210,1.0,3.0,70,0.00,,SKC,0.00,VWS V14.01,2013-04-23 03:26:00,
2013-04-22 23:27:00,39.3,30.4,30.55,SSW,192,0.0,3.0,70,0.00,,SKC,0.00,VWS V14.01,2013-04-23 03:27:00,
2013-04-22 23:29:00,39.3,30.4,30.55,SSW,198,0.0,3.0,70,0.00,,SKC,0.00,VWS V14.01,2013-04-23 03:29:00,
2013-04-22 23:30:00,39.3,30.4,30.55,SW,223,0.0,3.0,70,0.00,,SKC,0.00,VWS V14.01,2013-04-23 03:30:00,
2013-04-22 23:31:00,39.3,30.4,30.55,SW,220,0.0,0.0,70,0.00,,SKC,0.00,VWS V14.01,2013-04-23 03:31:00,
2013-04-22 23:32:00,39.3,30.4,30.55,SSW,209,0.0,0.0,70,0.00,,SKC,0.00,VWS V14.01,2013-04-23 03:32:00,
2013-04-22 23:34:00,39.3,30.4,30.55,SSW,203,0.0,10.0,70,0.00,,SKC,0.00,VWS V14.01,2013-04-23 03:34:00,
2013-04-22 23:35:00,39.3,30.4,30.55,SW,219,0.0,10.0,70,0.00,,SKC,0.00,VWS V14.01,2013-04-23 03:35:00,
2013-04-22 23:36:00,39.3,30.4,30.55,South,181,0.0,0.0,70,0.00,,SKC,0.00,VWS V14.01,2013-04-23 03:36:00,
2013-04-22 23:37:00,39.3,30.4,30.55,South,174,2.0,6.0,70,0.00,,SKC,0.00,VWS V14.01,2013-04-23 03:37:00,
2013-04-22 23:40:00,39.2,30.2,30.55,SSW,196,0.0,6.0,70,0.00,,SKC,0.00,VWS V14.01,2013-04-23 03:40:00,
2013-04-22 23:41:00,39.2,30.2,30.55,SSW,198,2.0,3.0,70,0.00,,SKC,0.00,VWS V14.01,2013-04-23 03:41:00,
2013-04-22 23:42:00,39.2,30.2,30.55,SSW,205,1.0,3.0,70,0.00,,SKC,0.00,VWS V14.01,2013-04-23 03:42:00,
2013-04-22 23:45:00,39.2,30.2,30.54,South,191,1.0,3.0,70,0.00,,SKC,0.00,VWS V14.01,2013-04-23 03:45:00,
2013-04-22 23:47:00,39.2,30.2,30.54,South,176,2.0,5.0,70,0.00,,SKC,0.00,VWS V14.01,2013-04-23 03:47:00,
2013-04-22 23:50:00,39.2,30.2,30.54,South,181,0.0,0.0,70,0.00,,SKC,0.00,VWS V14.01,2013-04-23 03:50:00,
2013-04-22 23:51:00,39.2,30.2,30.54,South,181,0.0,0.0,70,0.00,,SKC,0.00,VWS V14.01,2013-04-23 03:51:00,
2013-04-22 23:52:00,39.2,30.6,30.54,South,185,0.0,0.0,71,0.00,,SKC,0.00,VWS V14.01,2013-04-23 03:52:00,
2013-04-22 23:54:00,39.2,30.6,30.54,South,182,0.0,0.0,71,0.00,,SKC,0.00,VWS V14.01,2013-04-23 03:54:00,
2013-04-22 23:55:00,39.2,30.6,30.54,South,181,0.0,0.0,71,0.00,,SKC,0.00,VWS V14.01,2013-04-23 03:55:00,
2013-04-22 23:56:00,39.2,30.6,30.54,South,179,2.0,4.0,71,0.00,,SKC,0.00,VWS V14.01,2013-04-23 03:56:00,
2013-04-22 23:58:00,39.1,30.5,30.54,SSW,195,1.0,6.0,71,0.00,,SKC,0.00,VWS V14.01,2013-04-23 03:58:00,